Time,TemperatureF,DewpointF,PressureIn,WindDirection,WindDirectionDegrees,WindSpeedMPH,WindSpeedGustMPH,Humidity,HourlyPrecipIn,Conditions,Clouds,dailyrainin,SolarRadiationWatts/m^2,SoftwareType,DateUTC
2013-02-22 00:00:00,22.5,14.9,30.29,North,360,1.0,3.0,72,0.00,,---,0.00,0.00,VWS V14.01,2013-02-22 05:00:00,
2013-02-22 00:05:00,22.5,14.5,30.29,NW,325,0.0,5.0,71,0.00,,---,0.00,0.00,VWS V14.01,2013-02-22 05:05:00,
2013-02-22 00:10:00,22.5,14.5,30.29,SW,234,1.0,5.0,71,0.00,,---,0.00,0.00,VWS V14.01,2013-02-22 05:10:00,
2013-02-22 00:15:00,22.5,14.9,30.29,NNE,23,0.0,3.0,72,0.00,,---,0.00,0.00,VWS V14.01,2013-02-22 05:15:00,
2013-02-22 00:20:00,22.5,14.5,30.29,North,360,1.0,4.0,71,0.00,,---,0.00,0.00,VWS V14.01,2013-02-22 05:20:00,
2013-02-22 00:25:00,22.5,14.9,30.29,North,355,2.0,5.0,72,0.00,,---,0.00,0.00,VWS V14.01,2013-02-22 05:25:00,
2013-02-22 00:30:00,22.4,14.8,30.28,NW,323,0.0,5.0,72,0.00,,---,0.00,0.00,VWS V14.01,2013-02-22 05:30:00,
2013-02-22 00:35:00,22.4,15.1,30.28,North,349,0.0,4.0,73,0.00,,---,0.00,0.00,VWS V14.01,2013-02-22 05:35:00,
2013-02-22 00:36:00,22.4,15.1,30.28,North,349,0.0,4.0,73,0.00,,---,0.00,0.00,VWS V14.01,2013-02-22 05:36:00,
2013-02-22 00:40:00,22.4,15.1,30.28,NNW,343,2.0,4.0,73,0.00,,---,0.00,0.00,VWS V14.01,2013-02-22 05:40:00,
2013-02-22 00:41:00,22.4,15.1,30.28,NNW,340,1.0,4.0,73,0.00,,---,0.00,0.00,VWS V14.01,2013-02-22 05:41:00,
2013-02-22 00:45:00,22.5,15.2,30.28,NW,308,0.0,4.0,73,0.00,,---,0.00,0.00,VWS V14.01,2013-02-22 05:45:00,
2013-02-22 00:46:00,22.5,15.2,30.28,NNE,30,2.0,4.0,73,0.00,,---,0.00,0.00,VWS V14.01,2013-02-22 05:46:00,
2013-02-22 00:50:00,22.5,15.2,30.28,NNW,327,2.0,4.0,73,0.00,,---,0.00,0.00,VWS V14.01,2013-02-22 05:50:00,
2013-02-22 00:51:00,22.5,15.2,30.28,NW,325,0.0,4.0,73,0.00,,---,0.00,0.00,VWS V14.01,2013-02-22 05:51:00,
2013-02-22 00:55:00,22.5,15.2,30.28,North,355,0.0,4.0,73,0.00,,---,0.00,0.00,VWS V14.01,2013-02-22 05:55:00,
2013-02-22 00:56:00,22.5,15.5,30.27,North,11,1.0,4.0,74,0.00,,---,0.00,0.00,VWS V14.01,2013-02-22 05:56:00,
2013-02-22 01:00:00,22.4,15.4,30.27,North,11,1.0,4.0,74,0.00,,---,0.00,0.00,VWS V14.01,2013-02-22 06:00:00,
2013-02-22 01:01:00,22.4,15.4,30.27,North,5,2.0,4.0,74,0.00,,---,0.00,0.00,VWS V14.01,2013-02-22 06:01:00,
2013-02-22 01:05:00,22.5,15.2,30.27,North,355,2.0,5.0,73,0.00,,---,0.00,0.00,VWS V14.01,2013-02-22 06:05:00,
2013-02-22 01:06:00,22.5,15.2,30.27,North,360,3.0,5.0,73,0.00,,---,0.00,0.00,VWS V14.01,2013-02-22 06:06:00,
2013-02-22 01:10:00,22.5,15.2,30.27,North,360,2.0,6.0,73,0.00,,---,0.00,0.00,VWS V14.01,2013-02-22 06:10:00,
2013-02-22 01:11:00,22.5,15.2,30.27,North,355,3.0,6.0,73,0.00,,---,0.00,0.00,VWS V14.01,2013-02-22 06:11:00,
2013-02-22 01:15:00,22.5,15.5,30.27,NE,46,0.0,4.0,74,0.00,,---,0.00,0.00,VWS V14.01,2013-02-22 06:15:00,
2013-02-22 01:16:00,22.5,15.5,30.27,North,355,0.0,5.0,74,0.00,,---,0.00,0.00,VWS V14.01,2013-02-22 06:16:00,
2013-02-22 01:20:00,22.6,15.6,30.27,NNE,15,3.0,6.0,74,0.00,,---,0.00,0.00,VWS V14.01,2013-02-22 06:20:00,
2013-02-22 01:21:00,22.6,15.6,30.27,North,355,3.0,6.0,74,0.00,,---,0.00,0.00,VWS V14.01,2013-02-22 06:21:00,
2013-02-22 01:26:00,22.6,15.6,30.27,North,11,1.0,5.0,74,0.00,,---,0.00,0.00,VWS V14.01,2013-02-22 06:26:00,
2013-02-22 01:31:00,22.6,15.9,30.27,NNW,334,1.0,6.0,75,0.00,,---,0.00,0.00,VWS V14.01,2013-02-22 06:31:00,
2013-02-22 01:36:00,22.6,15.9,30.27,NNW,338,4.0,6.0,75,0.00,,---,0.00,0.00,VWS V14.01,2013-02-22 06:36:00,
2013-02-22 01:37:00,22.6,15.9,30.27,NNW,332,2.0,6.0,75,0.00,,---,0.00,0.00,VWS V14.01,2013-02-22 06:37:00,
2013-02-22 01:41:00,22.6,15.9,30.27,NNE,20,1.0,6.0,75,0.00,,---,0.00,0.00,VWS V14.01,2013-02-22 06:41:00,
2013-02-22 01:42:00,22.6,15.9,30.27,North,355,0.0,6.0,75,0.00,,---,0.00,0.00,VWS V14.01,2013-02-22 06:42:00,
2013-02-22 01:46:00,22.6,15.9,30.26,ENE,63,3.0,5.0,75,0.00,,---,0.00,0.00,VWS V14.01,2013-02-22 06:46:00,
2013-02-22 01:47:00,22.6,15.9,30.26,North,355,3.0,5.0,75,0.00,,---,0.00,0.00,VWS V14.01,2013-02-22 06:47:00,
2013-02-22 01:51:00,22.5,15.8,30.26,North,350,0.0,5.0,75,0.00,,---,0.00,0.00,VWS V14.01,2013-02-22 06:51:00,
2013-02-22 01:52:00,22.5,15.8,30.26,North,355,1.0,5.0,75,0.00,,---,0.00,0.00,VWS V14.01,2013-02-22 06:52:00,
2013-02-22 01:56:00,22.5,16.1,30.26,NNW,344,3.0,4.0,76,0.00,,---,0.00,0.00,VWS V14.01,2013-02-22 06:56:00,
2013-02-22 01:57:00,22.5,16.1,30.26,NNE,32,3.0,5.0,76,0.00,,---,0.00,0.00,VWS V14.01,2013-02-22 06:57:00,
2013-02-22 02:01:00,22.5,16.1,30.27,NNW,344,2.0,6.0,76,0.00,,---,0.00,0.00,VWS V14.01,2013-02-22 07:01:00,
2013-02-22 02:02:00,22.5,16.1,30.27,North,5,1.0,1.0,76,0.00,,---,0.00,0.00,VWS V14.01,2013-02-22 07:02:00,
2013-02-22 02:06:00,22.5,16.1,30.27,NNE,18,0.0,5.0,76,0.00,,---,0.00,0.00,VWS V14.01,2013-02-22 07:06:00,
2013-02-22 02:07:00,22.5,16.1,30.27,NE,43,0.0,5.0,76,0.00,,---,0.00,0.00,VWS V14.01,2013-02-22 07:07:00,
2013-02-22 02:11:00,22.5,16.1,30.27,NNE,29,2.0,5.0,76,0.00,,---,0.00,0.00,VWS V14.01,2013-02-22 07:11:00,
2013-02-22 02:12:00,22.5,16.1,30.27,NNW,333,3.0,3.0,76,0.00,,---,0.00,0.00,VWS V14.01,2013-02-22 07:12:00,
2013-02-22 02:16:00,22.5,16.1,30.27,NNE,12,3.0,4.0,76,0.00,,---,0.00,0.00,VWS V14.01,2013-02-22 07:16:00,
2013-02-22 02:17:00,22.5,16.1,30.27,North,5,1.0,4.0,76,0.00,,---,0.00,0.00,VWS V14.01,2013-02-22 07:17:00,
2013-02-22 02:21:00,22.5,16.1,30.27,NW,319,0.0,4.0,76,0.00,,---,0.00,0.00,VWS V14.01,2013-02-22 07:21:00,
2013-02-22 02:22:00,22.5,16.4,30.27,North,10,1.0,3.0,77,0.00,,---,0.00,0.00,VWS V14.01,2013-02-22 07:22:00,
2013-02-22 02:26:00,22.5,16.4,30.28,NNW,339,3.0,3.0,77,0.00,,---,0.00,0.00,VWS V14.01,2013-02-22 07:26:00,
2013-02-22 02:27:00,22.5,16.4,30.28,NE,42,0.0,3.0,77,0.00,,---,0.00,0.00,VWS V14.01,2013-02-22 07:27:00,
2013-02-22 02:31:00,22.4,16.3,30.28,NE,45,1.0,3.0,77,0.00,,---,0.00,0.00,VWS V14.01,2013-02-22 07:31:00,
2013-02-22 02:32:00,22.4,16.3,30.28,NNW,341,2.0,2.0,77,0.00,,---,0.00,0.00,VWS V14.01,2013-02-22 07:32:00,
2013-02-22 02:36:00,22.4,16.3,30.27,North,11,2.0,5.0,77,0.00,,---,0.00,0.00,VWS V14.01,2013-02-22 07:36:00,
2013-02-22 02:37:00,22.4,16.3,30.27,North,349,3.0,5.0,77,0.00,,---,0.00,0.00,VWS V14.01,2013-02-22 07:37:00,
2013-02-22 02:41:00,22.5,16.4,30.27,North,5,2.0,5.0,77,0.00,,---,0.00,0.00,VWS V14.01,2013-02-22 07:41:00,
2013-02-22 02:42:00,22.5,16.4,30.26,WNW,298,0.0,5.0,77,0.00,,---,0.00,0.00,VWS V14.01,2013-02-22 07:42:00,
2013-02-22 02:43:00,22.5,16.4,30.26,NNW,348,2.0,5.0,77,0.00,,---,0.00,0.00,VWS V14.01,2013-02-22 07:43:00,
2013-02-22 02:46:00,22.5,16.4,30.26,North,5,2.0,5.0,77,0.00,,---,0.00,0.00,VWS V14.01,2013-02-22 07:46:00,
2013-02-22 02:47:00,22.5,16.4,30.26,North,355,2.0,5.0,77,0.00,,---,0.00,0.00,VWS V14.01,2013-02-22 07:47:00,
2013-02-22 02:48:00,22.5,16.4,30.26,North,355,2.0,5.0,77,0.00,,---,0.00,0.00,VWS V14.01,2013-02-22 07:48:00,
2013-02-22 02:52:00,22.4,16.6,30.26,NNW,336,0.0,2.0,78,0.00,,---,0.00,0.00,VWS V14.01,2013-02-22 07:52:00,
2013-02-22 02:53:00,22.4,16.6,30.26,North,355,1.0,2.0,78,0.00,,---,0.00,0.00,VWS V14.01,2013-02-22 07:53:00,
2013-02-22 02:57:00,22.3,16.5,30.26,NNW,333,0.0,4.0,78,0.00,,---,0.00,0.00,VWS V14.01,2013-02-22 07:57:00,
2013-02-22 02:58:00,22.3,16.2,30.26,NNW,333,1.0,4.0,77,0.00,,---,0.00,0.00,VWS V14.01,2013-02-22 07:58:00,
2013-02-22 03:02:00,22.2,16.4,30.27,North,355,2.0,2.0,78,0.00,,---,0.00,0.00,VWS V14.01,2013-02-22 08:02:00,
2013-02-22 03:03:00,22.2,16.4,30.27,WNW,299,1.0,2.0,78,0.00,,---,0.00,0.00,VWS V14.01,2013-02-22 08:03:00,
2013-02-22 03:07:00,22.1,16.3,30.27,NW,304,1.0,9.0,78,0.00,,---,0.00,0.00,VWS V14.01,2013-02-22 08:07:00,
2013-02-22 03:08:00,22.1,16.3,30.27,North,360,2.0,9.0,78,0.00,,---,0.00,0.00,VWS V14.01,2013-02-22 08:08:00,
2013-02-22 03:12:00,22.2,16.4,30.27,NNE,29,4.0,5.0,78,0.00,,---,0.00,0.00,VWS V14.01,2013-02-22 08:12:00,
2013-02-22 03:13:00,22.2,16.4,30.27,North,5,0.0,5.0,78,0.00,,---,0.00,0.00,VWS V14.01,2013-02-22 08:13:00,
2013-02-22 03:14:00,22.2,16.4,30.27,North,5,0.0,5.0,78,0.00,,---,0.00,0.00,VWS V14.01,2013-02-22 08:14:00,
2013-02-22 03:17:00,22.2,16.4,30.27,ENE,60,2.0,5.0,78,0.00,,---,0.00,0.00,VWS V14.01,2013-02-22 08:17:00,
2013-02-22 03:18:00,22.2,16.4,30.27,NW,321,0.0,5.0,78,0.00,,---,0.00,0.00,VWS V14.01,2013-02-22 08:18:00,
2013-02-22 03:19:00,22.2,16.4,30.27,NNE,22,1.0,5.0,78,0.00,,---,0.00,0.00,VWS V14.01,2013-02-22 08:19:00,
2013-02-22 03:22:00,22.2,16.4,30.27,NNW,344,1.0,4.0,78,0.00,,---,0.00,0.00,VWS V14.01,2013-02-22 08:22:00,
2013-02-22 03:23:00,22.2,16.4,30.28,NNW,344,0.0,4.0,78,0.00,,---,0.00,0.00,VWS V14.01,2013-02-22 08:23:00,
2013-02-22 03:24:00,22.2,16.4,30.28,NNW,344,2.0,4.0,78,0.00,,---,0.00,0.00,VWS V14.01,2013-02-22 08:24:00,
2013-02-22 03:27:00,22.2,16.4,30.29,NNW,330,0.0,4.0,78,0.00,,---,0.00,0.00,VWS V14.01,2013-02-22 08:27:00,
2013-02-22 03:28:00,22.3,16.5,30.29,NNW,329,0.0,4.0,78,0.00,,---,0.00,0.00,VWS V14.01,2013-02-22 08:28:00,
2013-02-22 03:29:00,22.3,16.5,30.29,NNW,329,0.0,4.0,78,0.00,,---,0.00,0.00,VWS V14.01,2013-02-22 08:29:00,
2013-02-22 03:32:00,22.3,16.5,30.30,NNW,336,1.0,1.0,78,0.00,,---,0.00,0.00,VWS V14.01,2013-02-22 08:32:00,
2013-02-22 03:33:00,22.4,16.6,30.30,NNW,336,0.0,1.0,78,0.00,,---,0.00,0.00,VWS V14.01,2013-02-22 08:33:00,
2013-02-22 03:34:00,22.3,16.5,30.30,NNW,336,0.0,1.0,78,0.00,,---,0.00,0.00,VWS V14.01,2013-02-22 08:34:00,
2013-02-22 03:38:00,22.4,16.6,30.30,NNW,333,0.0,2.0,78,0.00,,---,0.00,0.00,VWS V14.01,2013-02-22 08:38:00,
2013-02-22 03:39:00,22.4,16.6,30.30,NNW,334,0.0,2.0,78,0.00,,---,0.00,0.00,VWS V14.01,2013-02-22 08:39:00,
2013-02-22 03:43:00,22.4,16.6,30.31,NNW,344,0.0,3.0,78,0.00,,---,0.00,0.00,VWS V14.01,2013-02-22 08:43:00,
2013-02-22 03:44:00,22.4,16.6,30.31,West,280,0.0,3.0,78,0.00,,---,0.00,0.00,VWS V14.01,2013-02-22 08:44:00,
2013-02-22 03:47:00,22.4,16.9,30.31,NNW,334,1.0,4.0,79,0.00,,---,0.00,0.00,VWS V14.01,2013-02-22 08:47:00,
2013-02-22 03:49:00,22.4,16.6,30.31,WSW,242,1.0,4.0,78,0.00,,---,0.00,0.00,VWS V14.01,2013-02-22 08:49:00,
2013-02-22 03:52:00,22.3,16.8,30.32,West,272,0.0,3.0,79,0.00,,---,0.00,0.00,VWS V14.01,2013-02-22 08:52:00,
2013-02-22 03:54:00,22.3,16.8,30.32,NNW,341,1.0,3.0,79,0.00,,---,0.00,0.00,VWS V14.01,2013-02-22 08:54:00,
2013-02-22 03:58:00,22.2,16.7,30.32,NNW,348,2.0,3.0,79,0.00,,---,0.00,0.00,VWS V14.01,2013-02-22 08:58:00,
2013-02-22 03:59:00,22.3,16.8,30.32,North,355,1.0,3.0,79,0.00,,---,0.00,0.00,VWS V14.01,2013-02-22 08:59:00,
2013-02-22 04:00:00,22.3,16.8,30.32,NNE,16,2.0,3.0,79,0.00,,---,0.00,0.00,VWS V14.01,2013-02-22 09:00:00,
2013-02-22 04:03:00,22.3,16.8,30.32,North,355,0.0,2.0,79,0.00,,---,0.00,0.00,VWS V14.01,2013-02-22 09:03:00,
2013-02-22 04:04:00,22.2,16.7,30.32,North,355,0.0,2.0,79,0.00,,---,0.00,0.00,VWS V14.01,2013-02-22 09:04:00,
2013-02-22 04:05:00,22.2,16.7,30.32,North,355,0.0,2.0,79,0.00,,---,0.00,0.00,VWS V14.01,2013-02-22 09:05:00,
2013-02-22 04:08:00,22.2,16.7,30.32,NNW,346,0.0,2.0,79,0.00,,---,0.00,0.00,VWS V14.01,2013-02-22 09:08:00,
2013-02-22 04:09:00,22.1,16.6,30.32,North,11,0.0,2.0,79,0.00,,---,0.00,0.00,VWS V14.01,2013-02-22 09:09:00,
2013-02-22 04:10:00,22.1,16.6,30.32,NNE,16,0.0,2.0,79,0.00,,---,0.00,0.00,VWS V14.01,2013-02-22 09:10:00,
2013-02-22 04:13:00,22.1,16.6,30.32,NNW,336,0.0,3.0,79,0.00,,---,0.00,0.00,VWS V14.01,2013-02-22 09:13:00,
2013-02-22 04:14:00,22.1,16.6,30.32,North,350,1.0,3.0,79,0.00,,---,0.00,0.00,VWS V14.01,2013-02-22 09:14:00,
2013-02-22 04:15:00,22.1,16.6,30.32,North,350,1.0,3.0,79,0.00,,---,0.00,0.00,VWS V14.01,2013-02-22 09:15:00,
2013-02-22 04:18:00,22.1,16.6,30.32,NE,55,0.0,3.0,79,0.00,,---,0.00,0.00,VWS V14.01,2013-02-22 09:18:00,
2013-02-22 04:19:00,22.1,16.6,30.32,NE,54,0.0,3.0,79,0.00,,---,0.00,0.00,VWS V14.01,2013-02-22 09:19:00,
2013-02-22 04:20:00,22.0,16.5,30.32,NE,54,1.0,3.0,79,0.00,,---,0.00,0.00,VWS V14.01,2013-02-22 09:20:00,
2013-02-22 04:23:00,22.0,16.5,30.32,North,355,0.0,2.0,79,0.00,,---,0.00,0.00,VWS V14.01,2013-02-22 09:23:00,
2013-02-22 04:25:00,22.0,16.5,30.32,North,355,0.0,2.0,79,0.00,,---,0.00,0.00,VWS V14.01,2013-02-22 09:25:00,
2013-02-22 04:28:00,22.0,16.8,30.32,NNW,343,0.0,2.0,80,0.00,,---,0.00,0.00,VWS V14.01,2013-02-22 09:28:00,
2013-02-22 04:30:00,21.9,16.7,30.32,North,350,0.0,2.0,80,0.00,,---,0.00,0.00,VWS V14.01,2013-02-22 09:30:00,
2013-02-22 04:34:00,21.9,16.7,30.32,North,360,1.0,2.0,80,0.00,,---,0.00,0.00,VWS V14.01,2013-02-22 09:34:00,
2013-02-22 04:35:00,21.9,16.7,30.32,North,355,1.0,2.0,80,0.00,,---,0.00,0.00,VWS V14.01,2013-02-22 09:35:00,
2013-02-22 04:38:00,21.9,16.7,30.32,North,355,0.0,2.0,80,0.00,,---,0.00,0.00,VWS V14.01,2013-02-22 09:38:00,
2013-02-22 04:40:00,21.9,16.7,30.32,North,355,0.0,2.0,80,0.00,,---,0.00,0.00,VWS V14.01,2013-02-22 09:40:00,
2013-02-22 04:44:00,21.8,16.6,30.32,NNE,32,0.0,1.0,80,0.00,,---,0.00,0.00,VWS V14.01,2013-02-22 09:44:00,
2013-02-22 04:45:00,21.8,16.6,30.33,NNE,32,0.0,1.0,80,0.00,,---,0.00,0.00,VWS V14.01,2013-02-22 09:45:00,
2013-02-22 04:49:00,21.7,16.5,30.33,NE,34,0.0,3.0,80,0.00,,---,0.00,0.00,VWS V14.01,2013-02-22 09:49:00,
2013-02-22 04:50:00,21.8,16.6,30.33,NNE,32,1.0,3.0,80,0.00,,---,0.00,0.00,VWS V14.01,2013-02-22 09:50:00,
2013-02-22 04:54:00,21.8,16.6,30.34,North,9,1.0,1.0,80,0.00,,---,0.00,0.00,VWS V14.01,2013-02-22 09:54:00,
2013-02-22 04:55:00,21.8,16.6,30.34,North,5,0.0,2.0,80,0.00,,---,0.00,0.00,VWS V14.01,2013-02-22 09:55:00,
2013-02-22 04:56:00,21.8,16.6,30.34,North,5,0.0,2.0,80,0.00,,---,0.00,0.00,VWS V14.01,2013-02-22 09:56:00,
2013-02-22 04:59:00,21.8,16.6,30.34,North,5,0.0,2.0,80,0.00,,---,0.00,0.00,VWS V14.01,2013-02-22 09:59:00,
2013-02-22 05:00:00,21.8,16.6,30.34,NE,40,2.0,2.0,80,0.00,,---,0.00,0.00,VWS V14.01,2013-02-22 10:00:00,
2013-02-22 05:01:00,21.8,16.6,30.34,NNE,15,0.0,2.0,80,0.00,,---,0.00,0.00,VWS V14.01,2013-02-22 10:01:00,
2013-02-22 05:04:00,21.8,16.6,30.34,NNE,15,0.0,0.0,80,0.00,,---,0.00,0.00,VWS V14.01,2013-02-22 10:04:00,
2013-02-22 05:05:00,21.7,16.5,30.34,NNE,15,0.0,0.0,80,0.00,,---,0.00,0.00,VWS V14.01,2013-02-22 10:05:00,
2013-02-22 05:06:00,21.7,16.5,30.34,NNE,15,0.0,0.0,80,0.00,,---,0.00,0.00,VWS V14.01,2013-02-22 10:06:00,
2013-02-22 05:09:00,21.7,16.5,30.33,NNE,15,0.0,1.0,80,0.00,,---,0.00,0.00,VWS V14.01,2013-02-22 10:09:00,
2013-02-22 05:10:00,21.7,16.5,30.33,NNE,15,0.0,2.0,80,0.00,,---,0.00,0.00,VWS V14.01,2013-02-22 10:10:00,
2013-02-22 05:11:00,21.7,16.5,30.33,NNE,15,1.0,2.0,80,0.00,,---,0.00,0.00,VWS V14.01,2013-02-22 10:11:00,
2013-02-22 05:14:00,21.7,16.5,30.33,NE,38,0.0,2.0,80,0.00,,---,0.00,0.00,VWS V14.01,2013-02-22 10:14:00,
2013-02-22 05:15:00,21.8,16.6,30.33,NE,38,1.0,2.0,80,0.00,,---,0.00,0.00,VWS V14.01,2013-02-22 10:15:00,
2013-02-22 05:16:00,21.7,16.5,30.34,NE,38,0.0,2.0,80,0.00,,---,0.00,0.00,VWS V14.01,2013-02-22 10:16:00,
2013-02-22 05:20:00,21.6,16.7,30.34,NE,38,0.0,2.0,81,0.00,,---,0.00,0.00,VWS V14.01,2013-02-22 10:20:00,
2013-02-22 05:21:00,21.7,16.8,30.34,ENE,71,1.0,2.0,81,0.00,,---,0.00,0.00,VWS V14.01,2013-02-22 10:21:00,
2013-02-22 05:25:00,21.7,16.8,30.34,ENE,71,0.0,1.0,81,0.00,,---,0.00,0.00,VWS V14.01,2013-02-22 10:25:00,
2013-02-22 05:26:00,21.7,16.8,30.34,NNE,22,0.0,1.0,81,0.00,,---,0.00,0.00,VWS V14.01,2013-02-22 10:26:00,
2013-02-22 05:30:00,21.7,16.8,30.34,West,263,0.0,2.0,81,0.00,,---,0.00,0.00,VWS V14.01,2013-02-22 10:30:00,
2013-02-22 05:31:00,21.8,16.9,30.34,West,263,0.0,2.0,81,0.00,,---,0.00,0.00,VWS V14.01,2013-02-22 10:31:00,
2013-02-22 05:35:00,21.7,16.8,30.34,NNW,331,0.0,2.0,81,0.00,,---,0.00,0.00,VWS V14.01,2013-02-22 10:35:00,
2013-02-22 05:36:00,21.7,16.8,30.35,NNW,331,0.0,2.0,81,0.00,,---,0.00,0.00,VWS V14.01,2013-02-22 10:36:00,
2013-02-22 05:40:00,21.6,16.7,30.35,NNE,17,0.0,2.0,81,0.00,,---,0.00,0.00,VWS V14.01,2013-02-22 10:40:00,
2013-02-22 05:41:00,21.6,16.7,30.35,NNE,17,2.0,2.0,81,0.00,,---,0.00,0.00,VWS V14.01,2013-02-22 10:41:00,
2013-02-22 05:42:00,21.6,16.7,30.35,NNE,17,0.0,2.0,81,0.00,,---,0.00,0.00,VWS V14.01,2013-02-22 10:42:00,
2013-02-22 05:46:00,21.6,16.7,30.35,NNE,12,0.0,2.0,81,0.00,,---,0.00,0.00,VWS V14.01,2013-02-22 10:46:00,
2013-02-22 05:47:00,21.6,16.7,30.35,NNE,12,0.0,2.0,81,0.00,,---,0.00,0.00,VWS V14.01,2013-02-22 10:47:00,
2013-02-22 05:51:00,21.6,16.7,30.35,North,5,0.0,2.0,81,0.00,,---,0.00,0.00,VWS V14.01,2013-02-22 10:51:00,
2013-02-22 05:52:00,21.6,16.7,30.35,North,355,0.0,1.0,81,0.00,,---,0.00,0.00,VWS V14.01,2013-02-22 10:52:00,
2013-02-22 05:56:00,21.6,16.7,30.35,North,360,0.0,2.0,81,0.00,,---,0.00,0.00,VWS V14.01,2013-02-22 10:56:00,
2013-02-22 05:57:00,21.5,16.6,30.35,NNE,21,0.0,2.0,81,0.00,,---,0.00,0.00,VWS V14.01,2013-02-22 10:57:00,
2013-02-22 06:01:00,21.6,16.7,30.34,NE,42,0.0,2.0,81,0.00,,---,0.00,0.00,VWS V14.01,2013-02-22 11:01:00,
2013-02-22 06:02:00,21.6,16.7,30.34,North,360,2.0,3.0,81,0.00,,---,0.00,0.00,VWS V14.01,2013-02-22 11:02:00,
2013-02-22 06:06:00,21.6,16.7,30.34,NNE,27,0.0,4.0,81,0.00,,---,0.00,0.00,VWS V14.01,2013-02-22 11:06:00,
2013-02-22 06:07:00,21.6,16.7,30.34,NNE,26,2.0,4.0,81,0.00,,---,0.00,0.00,VWS V14.01,2013-02-22 11:07:00,
2013-02-22 06:11:00,21.5,16.6,30.35,NNW,344,0.0,4.0,81,0.00,,---,0.00,0.00,VWS V14.01,2013-02-22 11:11:00,
2013-02-22 06:12:00,21.5,16.6,30.35,NNW,344,0.0,4.0,81,0.00,,---,0.00,0.00,VWS V14.01,2013-02-22 11:12:00,
2013-02-22 06:16:00,21.5,16.6,30.35,North,9,0.0,2.0,81,0.00,,---,0.00,0.00,VWS V14.01,2013-02-22 11:16:00,
2013-02-22 06:17:00,21.5,16.6,30.35,North,9,0.0,2.0,81,0.00,,---,0.00,0.00,VWS V14.01,2013-02-22 11:17:00,
2013-02-22 06:21:00,21.6,16.7,30.35,NNE,19,0.0,5.0,81,0.00,,---,0.00,0.00,VWS V14.01,2013-02-22 11:21:00,
2013-02-22 06:22:00,21.6,16.7,30.35,NNE,19,1.0,5.0,81,0.00,,---,0.00,0.00,VWS V14.01,2013-02-22 11:22:00,
2013-02-22 06:26:00,21.6,16.7,30.35,North,360,2.0,4.0,81,0.00,,---,0.00,0.00,VWS V14.01,2013-02-22 11:26:00,
2013-02-22 06:27:00,21.6,16.7,30.35,North,360,0.0,4.0,81,0.00,,---,0.00,0.00,VWS V14.01,2013-02-22 11:27:00,
2013-02-22 06:31:00,21.6,16.7,30.36,North,351,2.0,4.0,81,0.00,,---,0.00,5.00,VWS V14.01,2013-02-22 11:31:00,
2013-02-22 06:32:00,21.6,16.7,30.35,North,351,1.0,1.0,81,0.00,,---,0.00,5.00,VWS V14.01,2013-02-22 11:32:00,
2013-02-22 06:37:00,21.6,16.7,30.36,NNE,18,1.0,4.0,81,0.00,,---,0.00,5.00,VWS V14.01,2013-02-22 11:37:00,
2013-02-22 06:42:00,21.7,16.8,30.36,NNE,12,2.0,2.0,81,0.00,,---,0.00,5.00,VWS V14.01,2013-02-22 11:42:00,
2013-02-22 06:47:00,21.6,16.7,30.36,North,350,2.0,3.0,81,0.00,,---,0.00,7.00,VWS V14.01,2013-02-22 11:47:00,
2013-02-22 06:52:00,21.6,16.7,30.37,NNW,335,0.0,0.0,81,0.00,,---,0.00,9.00,VWS V14.01,2013-02-22 11:52:00,
2013-02-22 06:53:00,21.6,16.7,30.37,North,355,2.0,2.0,81,0.00,,---,0.00,9.00,VWS V14.01,2013-02-22 11:53:00,
2013-02-22 06:57:00,21.7,16.8,30.37,NNW,343,0.0,2.0,81,0.00,,---,0.00,12.00,VWS V14.01,2013-02-22 11:57:00,
2013-02-22 06:58:00,21.7,16.8,30.37,North,355,0.0,2.0,81,0.00,,---,0.00,12.00,VWS V14.01,2013-02-22 11:58:00,
2013-02-22 07:02:00,21.7,16.8,30.37,NNE,32,1.0,1.0,81,0.00,,---,0.00,18.00,VWS V14.01,2013-02-22 12:02:00,
2013-02-22 07:03:00,21.7,16.8,30.37,NNW,340,3.0,3.0,81,0.00,,---,0.00,19.00,VWS V14.01,2013-02-22 12:03:00,
2013-02-22 07:07:00,21.9,17.0,30.38,NNW,341,0.0,3.0,81,0.00,,---,0.00,25.00,VWS V14.01,2013-02-22 12:07:00,
2013-02-22 07:08:00,21.8,16.9,30.38,NNW,341,0.0,3.0,81,0.00,,---,0.00,26.00,VWS V14.01,2013-02-22 12:08:00,
2013-02-22 07:12:00,22.0,16.8,30.38,NNW,339,0.0,0.0,80,0.00,,---,0.00,26.00,VWS V14.01,2013-02-22 12:12:00,
2013-02-22 07:13:00,22.0,16.8,30.38,NNW,339,0.0,0.0,80,0.00,,---,0.00,26.00,VWS V14.01,2013-02-22 12:13:00,
2013-02-22 07:17:00,22.1,17.2,30.39,NNW,339,1.0,1.0,81,0.00,,---,0.00,32.00,VWS V14.01,2013-02-22 12:17:00,
2013-02-22 07:18:00,22.1,17.2,30.39,NNW,339,0.0,1.0,81,0.00,,---,0.00,32.00,VWS V14.01,2013-02-22 12:18:00,
2013-02-22 07:22:00,22.2,17.0,30.39,NNW,338,0.0,0.0,80,0.00,,---,0.00,32.00,VWS V14.01,2013-02-22 12:22:00,
2013-02-22 07:23:00,22.2,17.0,30.39,NNW,338,0.0,0.0,80,0.00,,---,0.00,32.00,VWS V14.01,2013-02-22 12:23:00,
2013-02-22 07:24:00,22.2,17.3,30.39,NNW,338,0.0,0.0,81,0.00,,---,0.00,35.00,VWS V14.01,2013-02-22 12:24:00,
2013-02-22 07:27:00,22.3,17.1,30.39,North,355,0.0,3.0,80,0.00,,---,0.00,39.00,VWS V14.01,2013-02-22 12:27:00,
2013-02-22 07:28:00,22.3,17.1,30.40,North,355,0.0,3.0,80,0.00,,---,0.00,39.00,VWS V14.01,2013-02-22 12:28:00,
2013-02-22 07:29:00,22.3,17.1,30.40,North,355,0.0,3.0,80,0.00,,---,0.00,39.00,VWS V14.01,2013-02-22 12:29:00,
2013-02-22 07:33:00,22.5,17.3,30.39,North,355,1.0,1.0,80,0.00,,---,0.00,47.00,VWS V14.01,2013-02-22 12:33:00,
2013-02-22 07:34:00,22.5,17.3,30.39,North,355,0.0,1.0,80,0.00,,---,0.00,51.00,VWS V14.01,2013-02-22 12:34:00,
2013-02-22 07:38:00,22.6,17.4,30.40,North,355,0.0,1.0,80,0.00,,---,0.00,54.00,VWS V14.01,2013-02-22 12:38:00,
2013-02-22 07:39:00,22.7,17.5,30.40,North,355,0.0,1.0,80,0.00,,---,0.00,63.00,VWS V14.01,2013-02-22 12:39:00,
2013-02-22 07:43:00,22.9,17.4,30.40,North,355,1.0,1.0,79,0.00,,---,0.00,72.00,VWS V14.01,2013-02-22 12:43:00,
2013-02-22 07:44:00,23.0,17.5,30.40,North,355,1.0,1.0,79,0.00,,---,0.00,69.00,VWS V14.01,2013-02-22 12:44:00,
2013-02-22 07:48:00,23.2,17.7,30.40,NE,38,2.0,2.0,79,0.00,,---,0.00,60.00,VWS V14.01,2013-02-22 12:48:00,
2013-02-22 07:49:00,23.2,17.7,30.40,NE,38,1.0,2.0,79,0.00,,---,0.00,62.00,VWS V14.01,2013-02-22 12:49:00,
2013-02-22 07:53:00,23.4,17.9,30.40,NNE,31,2.0,2.0,79,0.00,,---,0.00,62.00,VWS V14.01,2013-02-22 12:53:00,
2013-02-22 07:54:00,23.4,17.6,30.40,NNW,339,2.0,3.0,78,0.00,,---,0.00,65.00,VWS V14.01,2013-02-22 12:54:00,
2013-02-22 07:58:00,23.5,17.7,30.40,North,360,2.0,3.0,78,0.00,,---,0.00,72.00,VWS V14.01,2013-02-22 12:58:00,
2013-02-22 07:59:00,23.6,17.8,30.40,North,360,1.0,3.0,78,0.00,,---,0.00,70.00,VWS V14.01,2013-02-22 12:59:00,
2013-02-22 08:03:00,23.8,18.0,30.40,North,5,1.0,2.0,78,0.00,,---,0.00,81.00,VWS V14.01,2013-02-22 13:03:00,
2013-02-22 08:04:00,23.8,18.0,30.40,NE,40,0.0,2.0,78,0.00,,---,0.00,83.00,VWS V14.01,2013-02-22 13:04:00,
2013-02-22 08:08:00,24.0,17.9,30.40,North,5,0.0,3.0,77,0.00,,---,0.00,88.00,VWS V14.01,2013-02-22 13:08:00,
2013-02-22 08:10:00,24.1,18.0,30.40,NNW,344,0.0,3.0,77,0.00,,---,0.00,93.00,VWS V14.01,2013-02-22 13:10:00,
2013-02-22 08:13:00,24.3,18.1,30.40,North,10,1.0,2.0,77,0.00,,---,0.00,109.00,VWS V14.01,2013-02-22 13:13:00,
2013-02-22 08:15:00,24.4,17.9,30.40,North,5,1.0,3.0,76,0.00,,---,0.00,102.00,VWS V14.01,2013-02-22 13:15:00,
2013-02-22 08:18:00,24.5,18.0,30.40,North,5,1.0,3.0,76,0.00,,---,0.00,113.00,VWS V14.01,2013-02-22 13:18:00,
2013-02-22 08:19:00,24.5,18.0,30.40,NNE,19,1.0,3.0,76,0.00,,---,0.00,111.00,VWS V14.01,2013-02-22 13:19:00,
2013-02-22 08:20:00,24.6,18.1,30.40,NE,37,0.0,3.0,76,0.00,,---,0.00,109.00,VWS V14.01,2013-02-22 13:20:00,
2013-02-22 08:23:00,24.8,18.3,30.39,NNW,338,1.0,3.0,76,0.00,,---,0.00,116.00,VWS V14.01,2013-02-22 13:23:00,
2013-02-22 08:24:00,24.8,18.3,30.39,NNW,338,0.0,3.0,76,0.00,,---,0.00,116.00,VWS V14.01,2013-02-22 13:24:00,
2013-02-22 08:25:00,24.9,18.4,30.39,North,5,2.0,3.0,76,0.00,,---,0.00,125.00,VWS V14.01,2013-02-22 13:25:00,
2013-02-22 08:28:00,25.0,18.2,30.39,North,10,1.0,4.0,75,0.00,,---,0.00,113.00,VWS V14.01,2013-02-22 13:28:00,
2013-02-22 08:29:00,25.0,18.5,30.39,North,10,0.0,4.0,76,0.00,,---,0.00,113.00,VWS V14.01,2013-02-22 13:29:00,
2013-02-22 08:30:00,25.1,18.6,30.39,North,10,0.0,4.0,76,0.00,,---,0.00,127.00,VWS V14.01,2013-02-22 13:30:00,
2013-02-22 08:33:00,25.3,18.5,30.40,NE,38,0.0,2.0,75,0.00,,---,0.00,125.00,VWS V14.01,2013-02-22 13:33:00,
2013-02-22 08:34:00,25.4,18.6,30.40,NE,38,0.0,2.0,75,0.00,,---,0.00,125.00,VWS V14.01,2013-02-22 13:34:00,
2013-02-22 08:36:00,25.5,18.7,30.40,NNE,22,2.0,2.0,75,0.00,,---,0.00,128.00,VWS V14.01,2013-02-22 13:36:00,
2013-02-22 08:39:00,25.6,18.8,30.40,NNE,22,0.0,4.0,75,0.00,,---,0.00,144.00,VWS V14.01,2013-02-22 13:39:00,
2013-02-22 08:41:00,25.7,18.6,30.40,NE,51,0.0,4.0,74,0.00,,---,0.00,137.00,VWS V14.01,2013-02-22 13:41:00,
2013-02-22 08:44:00,25.9,18.8,30.40,North,355,0.0,2.0,74,0.00,,---,0.00,160.00,VWS V14.01,2013-02-22 13:44:00,
2013-02-22 08:45:00,25.9,18.8,30.40,North,355,0.0,2.0,74,0.00,,---,0.00,183.00,VWS V14.01,2013-02-22 13:45:00,
2013-02-22 08:46:00,26.0,18.9,30.40,North,355,0.0,2.0,74,0.00,,---,0.00,158.00,VWS V14.01,2013-02-22 13:46:00,
2013-02-22 08:49:00,26.3,19.1,30.40,North,355,1.0,2.0,74,0.00,,---,0.00,141.00,VWS V14.01,2013-02-22 13:49:00,
2013-02-22 08:50:00,26.3,19.1,30.40,NNW,339,3.0,3.0,74,0.00,,---,0.00,142.00,VWS V14.01,2013-02-22 13:50:00,
2013-02-22 08:51:00,26.4,18.9,30.40,NNW,348,3.0,3.0,73,0.00,,---,0.00,139.00,VWS V14.01,2013-02-22 13:51:00,
2013-02-22 08:54:00,26.4,18.6,30.40,North,360,0.0,2.0,72,0.00,,---,0.00,176.00,VWS V14.01,2013-02-22 13:54:00,
2013-02-22 08:55:00,26.4,18.6,30.40,NNE,19,2.0,2.0,72,0.00,,---,0.00,179.00,VWS V14.01,2013-02-22 13:55:00,
2013-02-22 08:56:00,26.4,18.9,30.40,North,360,0.0,3.0,73,0.00,,---,0.00,188.00,VWS V14.01,2013-02-22 13:56:00,
2013-02-22 08:59:00,26.6,18.8,30.39,NE,38,1.0,3.0,72,0.00,,---,0.00,211.00,VWS V14.01,2013-02-22 13:59:00,
2013-02-22 09:00:00,26.7,18.9,30.39,NE,38,0.0,3.0,72,0.00,,---,0.00,229.00,VWS V14.01,2013-02-22 14:00:00,
2013-02-22 09:01:00,26.7,18.9,30.39,North,11,0.0,3.0,72,0.00,,---,0.00,229.00,VWS V14.01,2013-02-22 14:01:00,
2013-02-22 09:04:00,26.9,19.1,30.39,North,11,0.0,2.0,72,0.00,,---,0.00,255.00,VWS V14.01,2013-02-22 14:04:00,
2013-02-22 09:05:00,26.9,19.1,30.39,North,11,0.0,2.0,72,0.00,,---,0.00,287.00,VWS V14.01,2013-02-22 14:05:00,
2013-02-22 09:06:00,27.1,19.3,30.40,North,11,0.0,2.0,72,0.00,,---,0.00,294.00,VWS V14.01,2013-02-22 14:06:00,
2013-02-22 09:09:00,27.3,19.5,30.40,North,9,0.0,2.0,72,0.00,,---,0.00,127.00,VWS V14.01,2013-02-22 14:09:00,
2013-02-22 09:10:00,27.3,19.5,30.40,NNW,347,0.0,2.0,72,0.00,,---,0.00,127.00,VWS V14.01,2013-02-22 14:10:00,
2013-02-22 09:12:00,27.4,19.6,30.40,NNW,347,0.0,2.0,72,0.00,,---,0.00,257.00,VWS V14.01,2013-02-22 14:12:00,
2013-02-22 09:14:00,27.4,19.2,30.39,North,351,1.0,2.0,71,0.00,,---,0.00,248.00,VWS V14.01,2013-02-22 14:14:00,
2013-02-22 09:15:00,27.4,19.6,30.39,North,351,0.0,2.0,72,0.00,,---,0.00,248.00,VWS V14.01,2013-02-22 14:15:00,
2013-02-22 09:17:00,27.6,19.4,30.39,North,360,0.0,2.0,71,0.00,,---,0.00,204.00,VWS V14.01,2013-02-22 14:17:00,
2013-02-22 09:19:00,27.8,19.6,30.40,North,360,0.0,2.0,71,0.00,,---,0.00,192.00,VWS V14.01,2013-02-22 14:19:00,
2013-02-22 09:20:00,27.8,19.6,30.40,North,360,0.0,2.0,71,0.00,,---,0.00,209.00,VWS V14.01,2013-02-22 14:20:00,
2013-02-22 09:21:00,27.9,19.7,30.40,North,360,0.0,2.0,71,0.00,,---,0.00,209.00,VWS V14.01,2013-02-22 14:21:00,
2013-02-22 09:22:00,28.0,19.8,30.40,NE,48,0.0,2.0,71,0.00,,---,0.00,306.00,VWS V14.01,2013-02-22 14:22:00,
2013-02-22 09:25:00,28.2,20.0,30.39,ENE,61,0.0,1.0,71,0.00,,---,0.00,241.00,VWS V14.01,2013-02-22 14:25:00,
2013-02-22 09:26:00,28.2,19.4,30.39,ENE,61,0.0,1.0,69,0.00,,---,0.00,193.00,VWS V14.01,2013-02-22 14:26:00,
2013-02-22 09:27:00,28.2,19.7,30.39,NE,48,2.0,2.0,70,0.00,,---,0.00,246.00,VWS V14.01,2013-02-22 14:27:00,
2013-02-22 09:30:00,28.3,19.8,30.39,NNE,19,0.0,2.0,70,0.00,,---,0.00,225.00,VWS V14.01,2013-02-22 14:30:00,
2013-02-22 09:31:00,28.5,20.3,30.39,NNE,19,0.0,2.0,71,0.00,,---,0.00,250.00,VWS V14.01,2013-02-22 14:31:00,
2013-02-22 09:32:00,28.7,20.5,30.39,NE,44,1.0,1.0,71,0.00,,---,0.00,209.00,VWS V14.01,2013-02-22 14:32:00,
2013-02-22 09:35:00,28.8,19.9,30.39,North,5,3.0,3.0,69,0.00,,---,0.00,174.00,VWS V14.01,2013-02-22 14:35:00,
2013-02-22 09:36:00,28.8,19.9,30.39,NNW,329,1.0,3.0,69,0.00,,---,0.00,176.00,VWS V14.01,2013-02-22 14:36:00,
2013-02-22 09:37:00,28.8,19.9,30.39,North,350,1.0,3.0,69,0.00,,---,0.00,172.00,VWS V14.01,2013-02-22 14:37:00,
2013-02-22 09:40:00,28.7,19.8,30.39,North,350,1.0,3.0,69,0.00,,---,0.00,202.00,VWS V14.01,2013-02-22 14:40:00,
2013-02-22 09:41:00,28.8,19.9,30.39,North,350,1.0,3.0,69,0.00,,---,0.00,211.00,VWS V14.01,2013-02-22 14:41:00,
2013-02-22 09:42:00,28.9,20.4,30.38,NE,51,0.0,2.0,70,0.00,,---,0.00,221.00,VWS V14.01,2013-02-22 14:42:00,
2013-02-22 09:45:00,28.8,19.9,30.38,NE,40,2.0,2.0,69,0.00,,---,0.00,223.00,VWS V14.01,2013-02-22 14:45:00,
2013-02-22 09:46:00,28.9,20.0,30.39,NNE,25,1.0,3.0,69,0.00,,---,0.00,214.00,VWS V14.01,2013-02-22 14:46:00,
2013-02-22 09:48:00,29.0,20.1,30.39,NNE,25,0.0,3.0,69,0.00,,---,0.00,237.00,VWS V14.01,2013-02-22 14:48:00,
2013-02-22 09:50:00,29.1,19.9,30.39,North,355,0.0,3.0,68,0.00,,---,0.00,241.00,VWS V14.01,2013-02-22 14:50:00,
2013-02-22 09:51:00,29.1,20.2,30.39,North,355,0.0,3.0,69,0.00,,---,0.00,253.00,VWS V14.01,2013-02-22 14:51:00,
2013-02-22 09:53:00,29.2,20.0,30.38,ENE,67,0.0,1.0,68,0.00,,---,0.00,269.00,VWS V14.01,2013-02-22 14:53:00,
2013-02-22 09:55:00,29.3,20.1,30.39,North,5,1.0,2.0,68,0.00,,---,0.00,290.00,VWS V14.01,2013-02-22 14:55:00,
2013-02-22 09:56:00,29.3,19.7,30.39,NE,38,0.0,2.0,67,0.00,,---,0.00,234.00,VWS V14.01,2013-02-22 14:56:00,
2013-02-22 09:58:00,29.3,20.1,30.38,NE,40,0.0,2.0,68,0.00,,---,0.00,209.00,VWS V14.01,2013-02-22 14:58:00,
2013-02-22 10:00:00,29.3,19.7,30.38,NE,52,0.0,2.0,67,0.00,,---,0.00,188.00,VWS V14.01,2013-02-22 15:00:00,
2013-02-22 10:01:00,29.3,20.4,30.38,NE,52,0.0,2.0,69,0.00,,---,0.00,130.00,VWS V14.01,2013-02-22 15:01:00,
2013-02-22 10:03:00,29.3,19.7,30.37,NW,325,3.0,4.0,67,0.00,,---,0.00,128.00,VWS V14.01,2013-02-22 15:03:00,
2013-02-22 10:05:00,29.2,19.6,30.37,NNE,31,0.0,4.0,67,0.00,,---,0.00,188.00,VWS V14.01,2013-02-22 15:05:00,
2013-02-22 10:06:00,29.3,20.1,30.37,NNE,13,1.0,4.0,68,0.00,,---,0.00,265.00,VWS V14.01,2013-02-22 15:06:00,
2013-02-22 10:08:00,29.3,19.7,30.37,NNE,21,1.0,4.0,67,0.00,,---,0.00,258.00,VWS V14.01,2013-02-22 15:08:00,
2013-02-22 10:10:00,29.4,19.8,30.37,East,83,0.0,4.0,67,0.00,,---,0.00,302.00,VWS V14.01,2013-02-22 15:10:00,
2013-02-22 10:11:00,29.4,19.5,30.37,North,355,2.0,4.0,66,0.00,,---,0.00,272.00,VWS V14.01,2013-02-22 15:11:00,
2013-02-22 10:13:00,29.6,20.0,30.37,ENE,67,1.0,3.0,67,0.00,,---,0.00,322.00,VWS V14.01,2013-02-22 15:13:00,
2013-02-22 10:15:00,29.7,20.5,30.37,ENE,70,0.0,3.0,68,0.00,,---,0.00,394.00,VWS V14.01,2013-02-22 15:15:00,
2013-02-22 10:16:00,29.9,19.9,30.37,NNE,28,1.0,3.0,66,0.00,,---,0.00,461.00,VWS V14.01,2013-02-22 15:16:00,
2013-02-22 10:17:00,30.0,20.0,30.37,North,360,0.0,3.0,66,0.00,,---,0.00,480.00,VWS V14.01,2013-02-22 15:17:00,
2013-02-22 10:19:00,30.2,20.2,30.37,NNW,339,2.0,3.0,66,0.00,,---,0.00,452.00,VWS V14.01,2013-02-22 15:19:00,
2013-02-22 10:21:00,30.3,20.3,30.37,NNW,348,3.0,4.0,66,0.00,,---,0.00,336.00,VWS V14.01,2013-02-22 15:21:00,
2013-02-22 10:22:00,30.5,20.1,30.37,NNE,17,1.0,1.0,65,0.00,,---,0.00,336.00,VWS V14.01,2013-02-22 15:22:00,
2013-02-22 10:24:00,30.5,20.5,30.37,NNW,342,2.0,3.0,66,0.00,,---,0.00,508.00,VWS V14.01,2013-02-22 15:24:00,
2013-02-22 10:26:00,30.7,20.7,30.37,East,89,1.0,3.0,66,0.00,,---,0.00,526.00,VWS V14.01,2013-02-22 15:26:00,
2013-02-22 10:27:00,30.9,21.2,30.36,ENE,63,2.0,3.0,67,0.00,,---,0.00,526.00,VWS V14.01,2013-02-22 15:27:00,
2013-02-22 10:29:00,31.0,20.6,30.36,East,80,0.0,3.0,65,0.00,,---,0.00,283.00,VWS V14.01,2013-02-22 15:29:00,
2013-02-22 10:31:00,31.0,21.0,30.36,NNW,347,5.0,5.0,66,0.00,,---,0.00,223.00,VWS V14.01,2013-02-22 15:31:00,
2013-02-22 10:32:00,30.9,20.5,30.36,NNE,14,1.0,1.0,65,0.00,,---,0.00,195.00,VWS V14.01,2013-02-22 15:32:00,
2013-02-22 10:34:00,30.8,20.4,30.36,North,5,0.0,2.0,65,0.00,,---,0.00,200.00,VWS V14.01,2013-02-22 15:34:00,
2013-02-22 10:36:00,30.9,20.5,30.36,East,89,0.0,2.0,65,0.00,,---,0.00,309.00,VWS V14.01,2013-02-22 15:36:00,
2013-02-22 10:37:00,31.0,20.6,30.37,East,86,0.0,2.0,65,0.00,,---,0.00,418.00,VWS V14.01,2013-02-22 15:37:00,
2013-02-22 10:39:00,31.2,21.2,30.37,ENE,60,0.0,2.0,66,0.00,,---,0.00,418.00,VWS V14.01,2013-02-22 15:39:00,
2013-02-22 10:41:00,31.2,20.5,30.37,ENE,60,0.0,2.0,64,0.00,,---,0.00,188.00,VWS V14.01,2013-02-22 15:41:00,
2013-02-22 10:42:00,31.2,20.5,30.37,ENE,60,0.0,1.0,64,0.00,,---,0.00,274.00,VWS V14.01,2013-02-22 15:42:00,
2013-02-22 10:44:00,31.2,20.5,30.37,ENE,60,0.0,1.0,64,0.00,,---,0.00,295.00,VWS V14.01,2013-02-22 15:44:00,
2013-02-22 10:46:00,31.3,20.2,30.38,ENE,60,0.0,1.0,63,0.00,,---,0.00,376.00,VWS V14.01,2013-02-22 15:46:00,
2013-02-22 10:47:00,31.4,21.0,30.38,ENE,60,0.0,1.0,65,0.00,,---,0.00,376.00,VWS V14.01,2013-02-22 15:47:00,
2013-02-22 10:49:00,31.8,21.4,30.37,ENE,60,1.0,1.0,65,0.00,,---,0.00,376.00,VWS V14.01,2013-02-22 15:49:00,
2013-02-22 10:51:00,31.9,21.9,30.37,ENE,60,0.0,2.0,66,0.00,,---,0.00,359.00,VWS V14.01,2013-02-22 15:51:00,
2013-02-22 10:52:00,32.0,21.6,30.37,ENE,60,0.0,0.0,65,0.00,,---,0.00,304.00,VWS V14.01,2013-02-22 15:52:00,
2013-02-22 10:55:00,32.4,20.9,30.38,NE,49,0.0,3.0,62,0.00,,---,0.00,501.00,VWS V14.01,2013-02-22 15:55:00,
2013-02-22 10:56:00,32.5,20.9,30.37,NE,49,0.0,3.0,62,0.00,,---,0.00,501.00,VWS V14.01,2013-02-22 15:56:00,
2013-02-22 10:57:00,32.5,20.6,30.37,NE,49,0.0,3.0,61,0.00,,---,0.00,446.00,VWS V14.01,2013-02-22 15:57:00,
2013-02-22 11:00:00,32.6,21.0,30.38,NE,48,0.0,3.0,62,0.00,,---,0.00,490.00,VWS V14.01,2013-02-22 16:00:00,
2013-02-22 11:01:00,32.5,20.9,30.38,NE,49,0.0,3.0,62,0.00,,---,0.00,258.00,VWS V14.01,2013-02-22 16:01:00,
2013-02-22 11:02:00,32.5,20.6,30.38,NE,49,0.0,0.0,61,0.00,,---,0.00,162.00,VWS V14.01,2013-02-22 16:02:00,
2013-02-22 11:03:00,32.5,20.6,30.38,NE,49,0.0,1.0,61,0.00,,---,0.00,190.00,VWS V14.01,2013-02-22 16:03:00,
2013-02-22 11:05:00,33.0,21.4,30.38,SE,136,1.0,2.0,62,0.00,,---,0.00,454.00,VWS V14.01,2013-02-22 16:05:00,
2013-02-22 11:06:00,33.2,20.8,30.38,SE,136,0.0,2.0,60,0.00,,---,0.00,573.00,VWS V14.01,2013-02-22 16:06:00,
2013-02-22 11:07:00,33.3,20.9,30.38,SE,136,0.0,2.0,60,0.00,,---,0.00,503.00,VWS V14.01,2013-02-22 16:07:00,
2013-02-22 11:08:00,33.2,20.4,30.38,SE,136,1.0,2.0,59,0.00,,---,0.00,503.00,VWS V14.01,2013-02-22 16:08:00,
2013-02-22 11:10:00,33.6,20.8,30.38,SSE,167,0.0,2.0,59,0.00,,---,0.00,668.00,VWS V14.01,2013-02-22 16:10:00,
2013-02-22 11:12:00,34.0,21.2,30.38,SSE,155,0.0,0.0,59,0.00,,---,0.00,668.00,VWS V14.01,2013-02-22 16:12:00,
2013-02-22 11:13:00,34.2,21.0,30.38,SSE,155,0.0,0.0,58,0.00,,---,0.00,589.00,VWS V14.01,2013-02-22 16:13:00,
2013-02-22 11:15:00,34.1,20.9,30.37,SSE,155,0.0,1.0,58,0.00,,---,0.00,292.00,VWS V14.01,2013-02-22 16:15:00,
2013-02-22 11:17:00,34.0,20.8,30.37,NE,53,2.0,5.0,58,0.00,,---,0.00,353.00,VWS V14.01,2013-02-22 16:17:00,
2013-02-22 11:18:00,34.0,20.8,30.37,SE,138,0.0,5.0,58,0.00,,---,0.00,654.00,VWS V14.01,2013-02-22 16:18:00,
2013-02-22 11:20:00,33.9,21.9,30.37,NE,40,1.0,5.0,61,0.00,,---,0.00,640.00,VWS V14.01,2013-02-22 16:20:00,
2013-02-22 11:22:00,33.8,20.6,30.37,NE,39,0.0,0.0,58,0.00,,---,0.00,640.00,VWS V14.01,2013-02-22 16:22:00,
2013-02-22 11:23:00,33.7,20.5,30.37,NE,39,0.0,0.0,58,0.00,,---,0.00,640.00,VWS V14.01,2013-02-22 16:23:00,
2013-02-22 11:25:00,33.5,21.1,30.37,NE,34,0.0,3.0,60,0.00,,---,0.00,541.00,VWS V14.01,2013-02-22 16:25:00,
2013-02-22 11:27:00,33.7,21.3,30.38,East,83,0.0,3.0,60,0.00,,---,0.00,554.00,VWS V14.01,2013-02-22 16:27:00,
2013-02-22 11:28:00,33.8,21.8,30.38,NNE,27,2.0,4.0,61,0.00,,---,0.00,376.00,VWS V14.01,2013-02-22 16:28:00,
2013-02-22 11:30:00,33.9,21.5,30.38,NNE,26,5.0,5.0,60,0.00,,---,0.00,192.00,VWS V14.01,2013-02-22 16:30:00,
2013-02-22 11:32:00,33.8,21.4,30.37,NE,34,0.0,1.0,60,0.00,,---,0.00,195.00,VWS V14.01,2013-02-22 16:32:00,
2013-02-22 11:33:00,33.8,21.4,30.37,NE,34,0.0,1.0,60,0.00,,---,0.00,244.00,VWS V14.01,2013-02-22 16:33:00,
2013-02-22 11:35:00,33.8,21.4,30.37,SE,140,0.0,1.0,60,0.00,,---,0.00,211.00,VWS V14.01,2013-02-22 16:35:00,
2013-02-22 11:37:00,34.2,21.8,30.38,SSE,163,0.0,2.0,60,0.00,,---,0.00,192.00,VWS V14.01,2013-02-22 16:37:00,
2013-02-22 11:38:00,34.3,21.9,30.38,SSE,167,0.0,2.0,60,0.00,,---,0.00,218.00,VWS V14.01,2013-02-22 16:38:00,
2013-02-22 11:39:00,34.3,21.5,30.38,SSE,167,1.0,2.0,59,0.00,,---,0.00,165.00,VWS V14.01,2013-02-22 16:39:00,
2013-02-22 11:40:00,34.2,21.4,30.38,SSE,167,0.0,2.0,59,0.00,,---,0.00,179.00,VWS V14.01,2013-02-22 16:40:00,
2013-02-22 11:42:00,34.5,22.5,30.37,SE,131,2.0,2.0,61,0.00,,---,0.00,223.00,VWS V14.01,2013-02-22 16:42:00,
2013-02-22 11:43:00,34.5,22.5,30.37,ESE,118,2.0,3.0,61,0.00,,---,0.00,202.00,VWS V14.01,2013-02-22 16:43:00,
2013-02-22 11:44:00,34.7,22.2,30.37,ESE,118,0.0,3.0,60,0.00,,---,0.00,253.00,VWS V14.01,2013-02-22 16:44:00,
2013-02-22 11:45:00,34.6,21.8,30.37,ESE,118,0.0,3.0,59,0.00,,---,0.00,255.00,VWS V14.01,2013-02-22 16:45:00,
2013-02-22 11:47:00,34.7,22.6,30.37,South,186,2.0,3.0,61,0.00,,---,0.00,348.00,VWS V14.01,2013-02-22 16:47:00,
2013-02-22 11:48:00,34.7,22.2,30.37,South,186,0.0,3.0,60,0.00,,---,0.00,348.00,VWS V14.01,2013-02-22 16:48:00,
2013-02-22 11:49:00,34.8,22.7,30.37,South,186,0.0,3.0,61,0.00,,---,0.00,197.00,VWS V14.01,2013-02-22 16:49:00,
2013-02-22 11:51:00,34.7,22.6,30.37,South,186,0.0,3.0,61,0.00,,---,0.00,181.00,VWS V14.01,2013-02-22 16:51:00,
2013-02-22 11:52:00,34.8,22.7,30.37,East,96,0.0,2.0,61,0.00,,---,0.00,165.00,VWS V14.01,2013-02-22 16:52:00,
2013-02-22 11:53:00,34.8,22.0,30.37,East,96,0.0,2.0,59,0.00,,---,0.00,148.00,VWS V14.01,2013-02-22 16:53:00,
2013-02-22 11:54:00,34.7,22.2,30.37,East,96,0.0,2.0,60,0.00,,---,0.00,148.00,VWS V14.01,2013-02-22 16:54:00,
2013-02-22 11:56:00,34.7,21.9,30.37,SE,140,0.0,2.0,59,0.00,,---,0.00,135.00,VWS V14.01,2013-02-22 16:56:00,
2013-02-22 11:58:00,34.6,21.8,30.38,NE,46,0.0,3.0,59,0.00,,---,0.00,158.00,VWS V14.01,2013-02-22 16:58:00,
2013-02-22 11:59:00,34.6,22.2,30.38,NE,42,1.0,3.0,60,0.00,,---,0.00,139.00,VWS V14.01,2013-02-22 16:59:00,
2013-02-22 12:01:00,34.4,21.6,30.37,ENE,72,0.0,3.0,59,0.00,,---,0.00,134.00,VWS V14.01,2013-02-22 17:01:00,
2013-02-22 12:03:00,34.5,21.7,30.37,ESE,111,0.0,2.0,59,0.00,,---,0.00,135.00,VWS V14.01,2013-02-22 17:03:00,
2013-02-22 12:04:00,34.6,21.8,30.37,ESE,111,0.0,2.0,59,0.00,,---,0.00,146.00,VWS V14.01,2013-02-22 17:04:00,
2013-02-22 12:06:00,34.5,21.3,30.37,ESE,111,0.0,2.0,58,0.00,,---,0.00,227.00,VWS V14.01,2013-02-22 17:06:00,
2013-02-22 12:08:00,34.4,21.6,30.38,WSW,252,1.0,3.0,59,0.00,,---,0.00,237.00,VWS V14.01,2013-02-22 17:08:00,
2013-02-22 12:09:00,34.4,22.0,30.38,WSW,252,0.0,3.0,60,0.00,,---,0.00,207.00,VWS V14.01,2013-02-22 17:09:00,
2013-02-22 12:11:00,34.5,22.5,30.38,WSW,252,0.0,3.0,61,0.00,,---,0.00,206.00,VWS V14.01,2013-02-22 17:11:00,
2013-02-22 12:13:00,34.6,22.2,30.37,WSW,252,0.0,0.0,60,0.00,,---,0.00,190.00,VWS V14.01,2013-02-22 17:13:00,
2013-02-22 12:14:00,34.7,21.9,30.37,WSW,252,0.0,0.0,59,0.00,,---,0.00,195.00,VWS V14.01,2013-02-22 17:14:00,
2013-02-22 12:16:00,34.9,22.8,30.37,WSW,252,0.0,1.0,61,0.00,,---,0.00,211.00,VWS V14.01,2013-02-22 17:16:00,
2013-02-22 12:18:00,35.0,22.9,30.37,WSW,252,0.0,1.0,61,0.00,,---,0.00,206.00,VWS V14.01,2013-02-22 17:18:00,
2013-02-22 12:19:00,35.0,22.1,30.37,WSW,252,0.0,1.0,59,0.00,,---,0.00,199.00,VWS V14.01,2013-02-22 17:19:00,
2013-02-22 12:21:00,34.8,22.0,30.36,WSW,252,0.0,1.0,59,0.00,,---,0.00,211.00,VWS V14.01,2013-02-22 17:21:00,
2013-02-22 12:23:00,34.6,21.4,30.36,WSW,252,0.0,0.0,58,0.00,,---,0.00,197.00,VWS V14.01,2013-02-22 17:23:00,
2013-02-22 12:24:00,34.6,21.4,30.36,WSW,252,0.0,0.0,58,0.00,,---,0.00,197.00,VWS V14.01,2013-02-22 17:24:00,
2013-02-22 12:26:00,34.6,21.8,30.36,WSW,252,0.0,0.0,59,0.00,,---,0.00,209.00,VWS V14.01,2013-02-22 17:26:00,
2013-02-22 12:28:00,34.7,22.6,30.37,WSW,252,0.0,1.0,61,0.00,,---,0.00,183.00,VWS V14.01,2013-02-22 17:28:00,
2013-02-22 12:29:00,34.8,22.0,30.37,WSW,252,0.0,1.0,59,0.00,,---,0.00,183.00,VWS V14.01,2013-02-22 17:29:00,
2013-02-22 12:31:00,35.0,22.1,30.36,SE,136,0.0,1.0,59,0.00,,---,0.00,181.00,VWS V14.01,2013-02-22 17:31:00,
2013-02-22 12:33:00,35.0,22.1,30.35,SE,136,0.0,1.0,59,0.00,,---,0.00,183.00,VWS V14.01,2013-02-22 17:33:00,
2013-02-22 12:34:00,35.1,22.2,30.35,SSE,161,1.0,1.0,59,0.00,,---,0.00,183.00,VWS V14.01,2013-02-22 17:34:00,
2013-02-22 12:36:00,35.2,21.9,30.35,NNE,32,2.0,2.0,58,0.00,,---,0.00,195.00,VWS V14.01,2013-02-22 17:36:00,
2013-02-22 12:39:00,35.0,22.5,30.35,ENE,71,3.0,3.0,60,0.00,,---,0.00,195.00,VWS V14.01,2013-02-22 17:39:00,
2013-02-22 12:41:00,34.9,22.0,30.35,ENE,67,0.0,3.0,59,0.00,,---,0.00,200.00,VWS V14.01,2013-02-22 17:41:00,
2013-02-22 12:43:00,34.9,21.6,30.35,ENE,67,0.0,0.0,58,0.00,,---,0.00,204.00,VWS V14.01,2013-02-22 17:43:00,
2013-02-22 12:44:00,34.9,21.6,30.35,ENE,67,0.0,0.0,58,0.00,,---,0.00,204.00,VWS V14.01,2013-02-22 17:44:00,
2013-02-22 12:46:00,35.1,22.2,30.35,East,96,0.0,1.0,59,0.00,,---,0.00,186.00,VWS V14.01,2013-02-22 17:46:00,
2013-02-22 12:49:00,35.2,21.9,30.35,SSE,148,0.0,1.0,58,0.00,,---,0.00,172.00,VWS V14.01,2013-02-22 17:49:00,
2013-02-22 12:50:00,35.2,21.9,30.35,SSE,148,0.0,1.0,58,0.00,,---,0.00,171.00,VWS V14.01,2013-02-22 17:50:00,
2013-02-22 12:51:00,35.2,21.5,30.35,SSE,148,0.0,1.0,57,0.00,,---,0.00,174.00,VWS V14.01,2013-02-22 17:51:00,
2013-02-22 12:54:00,35.1,21.8,30.34,SSE,148,0.0,1.0,58,0.00,,---,0.00,193.00,VWS V14.01,2013-02-22 17:54:00,
2013-02-22 12:55:00,35.1,21.8,30.34,SSE,148,0.0,1.0,58,0.00,,---,0.00,193.00,VWS V14.01,2013-02-22 17:55:00,
2013-02-22 12:56:00,35.2,21.9,30.34,SSE,147,0.0,1.0,58,0.00,,---,0.00,206.00,VWS V14.01,2013-02-22 17:56:00,
2013-02-22 12:59:00,35.3,22.0,30.35,NE,44,1.0,2.0,58,0.00,,---,0.00,216.00,VWS V14.01,2013-02-22 17:59:00,
2013-02-22 13:00:00,35.2,21.9,30.35,NE,42,1.0,2.0,58,0.00,,---,0.00,206.00,VWS V14.01,2013-02-22 18:00:00,
2013-02-22 13:01:00,35.2,21.9,30.35,NE,44,0.0,3.0,58,0.00,,---,0.00,199.00,VWS V14.01,2013-02-22 18:01:00,
2013-02-22 13:04:00,35.3,22.8,30.35,NNE,26,0.0,2.0,60,0.00,,---,0.00,197.00,VWS V14.01,2013-02-22 18:04:00,
2013-02-22 13:05:00,35.3,22.0,30.35,NE,50,0.0,2.0,58,0.00,,---,0.00,211.00,VWS V14.01,2013-02-22 18:05:00,
2013-02-22 13:07:00,35.4,22.9,30.35,NE,50,0.0,2.0,60,0.00,,---,0.00,181.00,VWS V14.01,2013-02-22 18:07:00,
2013-02-22 13:09:00,35.6,22.7,30.34,NE,50,0.0,2.0,59,0.00,,---,0.00,186.00,VWS V14.01,2013-02-22 18:09:00,
2013-02-22 13:10:00,35.5,22.6,30.34,NE,49,0.0,2.0,59,0.00,,---,0.00,186.00,VWS V14.01,2013-02-22 18:10:00,
2013-02-22 13:12:00,35.3,22.0,30.34,NE,49,0.0,0.0,58,0.00,,---,0.00,214.00,VWS V14.01,2013-02-22 18:12:00,
2013-02-22 13:14:00,35.4,22.1,30.34,NE,49,0.0,0.0,58,0.00,,---,0.00,185.00,VWS V14.01,2013-02-22 18:14:00,
2013-02-22 13:15:00,35.5,23.0,30.34,NE,49,0.0,0.0,60,0.00,,---,0.00,206.00,VWS V14.01,2013-02-22 18:15:00,
2013-02-22 13:16:00,35.6,23.5,30.34,NE,49,0.0,0.0,61,0.00,,---,0.00,206.00,VWS V14.01,2013-02-22 18:16:00,
2013-02-22 13:17:00,35.9,23.0,30.34,NE,49,0.0,0.0,59,0.00,,---,0.00,149.00,VWS V14.01,2013-02-22 18:17:00,
2013-02-22 13:19:00,36.1,22.8,30.34,ENE,63,0.0,1.0,58,0.00,,---,0.00,156.00,VWS V14.01,2013-02-22 18:19:00,
2013-02-22 13:20:00,36.2,22.9,30.33,East,101,1.0,2.0,58,0.00,,---,0.00,156.00,VWS V14.01,2013-02-22 18:20:00,
2013-02-22 13:21:00,36.2,22.9,30.33,SSE,150,0.0,2.0,58,0.00,,---,0.00,156.00,VWS V14.01,2013-02-22 18:21:00,
2013-02-22 13:22:00,36.1,22.4,30.33,SSE,150,0.0,0.0,57,0.00,,---,0.00,149.00,VWS V14.01,2013-02-22 18:22:00,
2013-02-22 13:24:00,35.8,22.1,30.33,SSE,150,0.0,1.0,57,0.00,,---,0.00,181.00,VWS V14.01,2013-02-22 18:24:00,
2013-02-22 13:25:00,35.7,22.0,30.33,SE,132,0.0,2.0,57,0.00,,---,0.00,188.00,VWS V14.01,2013-02-22 18:25:00,
2013-02-22 13:26:00,35.6,21.9,30.33,SE,132,0.0,2.0,57,0.00,,---,0.00,188.00,VWS V14.01,2013-02-22 18:26:00,
2013-02-22 13:27:00,35.6,22.3,30.32,SE,132,0.0,2.0,58,0.00,,---,0.00,195.00,VWS V14.01,2013-02-22 18:27:00,
2013-02-22 13:29:00,35.7,22.0,30.32,ESE,123,0.0,2.0,57,0.00,,---,0.00,192.00,VWS V14.01,2013-02-22 18:29:00,
2013-02-22 13:31:00,35.8,22.5,30.32,SE,139,1.0,2.0,58,0.00,,---,0.00,197.00,VWS V14.01,2013-02-22 18:31:00,
2013-02-22 13:33:00,35.9,22.2,30.32,SE,140,0.0,1.0,57,0.00,,---,0.00,192.00,VWS V14.01,2013-02-22 18:33:00,
2013-02-22 13:34:00,35.8,22.9,30.32,SE,140,0.0,1.0,59,0.00,,---,0.00,183.00,VWS V14.01,2013-02-22 18:34:00,
2013-02-22 13:36:00,35.7,23.2,30.31,SE,140,0.0,1.0,60,0.00,,---,0.00,183.00,VWS V14.01,2013-02-22 18:36:00,
2013-02-22 13:38:00,35.7,22.8,30.31,ESE,121,0.0,1.0,59,0.00,,---,0.00,185.00,VWS V14.01,2013-02-22 18:38:00,
2013-02-22 13:39:00,35.7,22.0,30.31,SE,128,0.0,1.0,57,0.00,,---,0.00,190.00,VWS V14.01,2013-02-22 18:39:00,
2013-02-22 13:41:00,35.6,22.3,30.32,SE,128,1.0,1.0,58,0.00,,---,0.00,193.00,VWS V14.01,2013-02-22 18:41:00,
2013-02-22 13:43:00,35.6,22.7,30.31,SSE,149,0.0,1.0,59,0.00,,---,0.00,200.00,VWS V14.01,2013-02-22 18:43:00,
2013-02-22 13:44:00,35.7,22.8,30.31,SSE,149,1.0,1.0,59,0.00,,---,0.00,202.00,VWS V14.01,2013-02-22 18:44:00,
2013-02-22 13:46:00,35.7,22.8,30.31,SE,128,0.0,1.0,59,0.00,,---,0.00,206.00,VWS V14.01,2013-02-22 18:46:00,
2013-02-22 13:48:00,35.8,23.3,30.32,South,184,0.0,1.0,60,0.00,,---,0.00,202.00,VWS V14.01,2013-02-22 18:48:00,
2013-02-22 13:49:00,35.8,22.9,30.32,SSW,202,0.0,1.0,59,0.00,,---,0.00,199.00,VWS V14.01,2013-02-22 18:49:00,
2013-02-22 13:51:00,35.9,23.0,30.33,South,184,1.0,2.0,59,0.00,,---,0.00,197.00,VWS V14.01,2013-02-22 18:51:00,
2013-02-22 13:53:00,35.9,23.0,30.33,South,171,0.0,0.0,59,0.00,,---,0.00,195.00,VWS V14.01,2013-02-22 18:53:00,
2013-02-22 13:55:00,35.8,22.9,30.33,SE,140,1.0,3.0,59,0.00,,---,0.00,192.00,VWS V14.01,2013-02-22 18:55:00,
2013-02-22 13:56:00,35.8,23.3,30.32,SE,138,0.0,3.0,60,0.00,,---,0.00,193.00,VWS V14.01,2013-02-22 18:56:00,
2013-02-22 13:58:00,35.6,22.3,30.32,SE,138,0.0,3.0,58,0.00,,---,0.00,190.00,VWS V14.01,2013-02-22 18:58:00,
2013-02-22 14:00:00,35.6,23.1,30.32,SSW,199,0.0,3.0,60,0.00,,---,0.00,181.00,VWS V14.01,2013-02-22 19:00:00,
2013-02-22 14:01:00,35.5,22.6,30.32,ESE,111,0.0,3.0,59,0.00,,---,0.00,171.00,VWS V14.01,2013-02-22 19:01:00,
2013-02-22 14:03:00,35.2,22.3,30.32,ESE,102,0.0,2.0,59,0.00,,---,0.00,160.00,VWS V14.01,2013-02-22 19:03:00,
2013-02-22 14:05:00,35.1,21.8,30.32,SE,144,0.0,2.0,58,0.00,,---,0.00,148.00,VWS V14.01,2013-02-22 19:05:00,
2013-02-22 14:06:00,35.2,22.3,30.32,East,88,2.0,3.0,59,0.00,,---,0.00,142.00,VWS V14.01,2013-02-22 19:06:00,
2013-02-22 14:07:00,35.2,22.3,30.32,East,94,2.0,3.0,59,0.00,,---,0.00,142.00,VWS V14.01,2013-02-22 19:07:00,
2013-02-22 14:08:00,35.2,22.3,30.32,East,101,0.0,3.0,59,0.00,,---,0.00,137.00,VWS V14.01,2013-02-22 19:08:00,
2013-02-22 14:10:00,35.1,22.6,30.32,ESE,116,0.0,3.0,60,0.00,,---,0.00,137.00,VWS V14.01,2013-02-22 19:10:00,
2013-02-22 14:11:00,35.1,21.8,30.32,SE,138,0.0,3.0,58,0.00,,---,0.00,135.00,VWS V14.01,2013-02-22 19:11:00,
2013-02-22 14:12:00,35.1,21.8,30.32,SE,138,0.0,3.0,58,0.00,,---,0.00,135.00,VWS V14.01,2013-02-22 19:12:00,
2013-02-22 14:13:00,35.0,22.5,30.32,East,93,0.0,1.0,60,0.00,,---,0.00,135.00,VWS V14.01,2013-02-22 19:13:00,
2013-02-22 14:15:00,34.9,22.4,30.32,East,93,0.0,1.0,60,0.00,,---,0.00,137.00,VWS V14.01,2013-02-22 19:15:00,
2013-02-22 14:17:00,35.0,22.5,30.32,ENE,64,0.0,2.0,60,0.00,,---,0.00,141.00,VWS V14.01,2013-02-22 19:17:00,
2013-02-22 14:19:00,35.1,23.0,30.33,ESE,119,0.0,2.0,61,0.00,,---,0.00,141.00,VWS V14.01,2013-02-22 19:19:00,
2013-02-22 14:20:00,35.1,23.0,30.32,ESE,119,0.0,2.0,61,0.00,,---,0.00,139.00,VWS V14.01,2013-02-22 19:20:00,
2013-02-22 14:22:00,35.2,23.1,30.33,ESE,119,0.0,2.0,61,0.00,,---,0.00,135.00,VWS V14.01,2013-02-22 19:22:00,
2013-02-22 14:24:00,35.3,23.2,30.33,SE,140,0.0,2.0,61,0.00,,---,0.00,139.00,VWS V14.01,2013-02-22 19:24:00,
2013-02-22 14:25:00,35.3,23.2,30.32,ESE,121,1.0,2.0,61,0.00,,---,0.00,142.00,VWS V14.01,2013-02-22 19:25:00,
2013-02-22 14:27:00,35.3,22.8,30.32,SE,146,0.0,2.0,60,0.00,,---,0.00,139.00,VWS V14.01,2013-02-22 19:27:00,
2013-02-22 14:29:00,35.3,22.8,30.32,SE,146,0.0,2.0,60,0.00,,---,0.00,134.00,VWS V14.01,2013-02-22 19:29:00,
2013-02-22 14:30:00,35.2,23.1,30.32,SE,135,0.0,2.0,61,0.00,,---,0.00,132.00,VWS V14.01,2013-02-22 19:30:00,
2013-02-22 14:32:00,35.3,22.8,30.32,ESE,123,0.0,0.0,60,0.00,,---,0.00,134.00,VWS V14.01,2013-02-22 19:32:00,
2013-02-22 14:34:00,35.2,22.7,30.32,SE,135,1.0,2.0,60,0.00,,---,0.00,139.00,VWS V14.01,2013-02-22 19:34:00,
2013-02-22 14:35:00,35.2,23.1,30.32,East,98,0.0,3.0,61,0.00,,---,0.00,144.00,VWS V14.01,2013-02-22 19:35:00,
2013-02-22 14:37:00,35.1,23.4,30.32,East,98,0.0,3.0,62,0.00,,---,0.00,146.00,VWS V14.01,2013-02-22 19:37:00,
2013-02-22 14:39:00,35.2,23.5,30.32,SSE,154,0.0,3.0,62,0.00,,---,0.00,153.00,VWS V14.01,2013-02-22 19:39:00,
2013-02-22 14:40:00,35.2,23.1,30.32,SSE,154,0.0,3.0,61,0.00,,---,0.00,158.00,VWS V14.01,2013-02-22 19:40:00,
2013-02-22 14:42:00,35.2,23.1,30.32,SE,134,0.0,1.0,61,0.00,,---,0.00,156.00,VWS V14.01,2013-02-22 19:42:00,
2013-02-22 14:44:00,35.2,22.7,30.32,SE,138,0.0,1.0,60,0.00,,---,0.00,149.00,VWS V14.01,2013-02-22 19:44:00,
2013-02-22 14:45:00,35.1,22.6,30.32,SE,145,0.0,1.0,60,0.00,,---,0.00,144.00,VWS V14.01,2013-02-22 19:45:00,
2013-02-22 14:47:00,35.2,23.5,30.32,SE,145,0.0,1.0,62,0.00,,---,0.00,137.00,VWS V14.01,2013-02-22 19:47:00,
2013-02-22 14:49:00,35.2,23.1,30.32,SE,145,0.0,1.0,61,0.00,,---,0.00,134.00,VWS V14.01,2013-02-22 19:49:00,
2013-02-22 14:50:00,35.3,22.8,30.32,SE,143,0.0,2.0,60,0.00,,---,0.00,132.00,VWS V14.01,2013-02-22 19:50:00,
2013-02-22 14:52:00,35.3,23.6,30.32,SE,143,0.0,1.0,62,0.00,,---,0.00,127.00,VWS V14.01,2013-02-22 19:52:00,
2013-02-22 14:53:00,35.3,23.6,30.32,SE,143,0.0,1.0,62,0.00,,---,0.00,127.00,VWS V14.01,2013-02-22 19:53:00,
2013-02-22 14:54:00,35.4,24.1,30.33,SE,143,0.0,1.0,63,0.00,,---,0.00,121.00,VWS V14.01,2013-02-22 19:54:00,
2013-02-22 14:56:00,35.4,24.1,30.33,SE,143,0.0,1.0,63,0.00,,---,0.00,118.00,VWS V14.01,2013-02-22 19:56:00,
2013-02-22 14:58:00,35.2,24.6,30.33,SE,143,0.0,1.0,65,0.00,,---,0.00,113.00,VWS V14.01,2013-02-22 19:58:00,
2013-02-22 14:59:00,35.2,24.3,30.32,South,187,0.0,2.0,64,0.00,,---,0.00,111.00,VWS V14.01,2013-02-22 19:59:00,
2013-02-22 15:01:00,35.1,23.4,30.32,SSW,207,0.0,3.0,62,0.00,,---,0.00,109.00,VWS V14.01,2013-02-22 20:01:00,
2013-02-22 15:03:00,35.0,23.3,30.32,SSE,160,0.0,1.0,62,0.00,,---,0.00,109.00,VWS V14.01,2013-02-22 20:03:00,
2013-02-22 15:05:00,34.8,23.1,30.32,SE,133,0.0,2.0,62,0.00,,---,0.00,109.00,VWS V14.01,2013-02-22 20:05:00,
2013-02-22 15:06:00,34.8,23.1,30.32,South,188,1.0,2.0,62,0.00,,---,0.00,109.00,VWS V14.01,2013-02-22 20:06:00,
2013-02-22 15:08:00,34.8,23.1,30.32,South,188,0.0,2.0,62,0.00,,---,0.00,111.00,VWS V14.01,2013-02-22 20:08:00,
2013-02-22 15:10:00,34.7,23.4,30.32,South,171,0.0,2.0,63,0.00,,---,0.00,113.00,VWS V14.01,2013-02-22 20:10:00,
2013-02-22 15:11:00,34.7,23.4,30.32,South,171,0.0,2.0,63,0.00,,---,0.00,113.00,VWS V14.01,2013-02-22 20:11:00,
2013-02-22 15:13:00,34.8,23.5,30.32,South,172,0.0,1.0,63,0.00,,---,0.00,114.00,VWS V14.01,2013-02-22 20:13:00,
2013-02-22 15:15:00,34.8,23.1,30.32,SSE,161,0.0,1.0,62,0.00,,---,0.00,114.00,VWS V14.01,2013-02-22 20:15:00,
2013-02-22 15:16:00,34.7,23.8,30.32,SE,136,2.0,2.0,64,0.00,,---,0.00,111.00,VWS V14.01,2013-02-22 20:16:00,
2013-02-22 15:18:00,34.6,24.1,30.32,ESE,114,0.0,2.0,65,0.00,,---,0.00,111.00,VWS V14.01,2013-02-22 20:18:00,
2013-02-22 15:20:00,34.6,23.7,30.32,ESE,114,1.0,2.0,64,0.00,,---,0.00,104.00,VWS V14.01,2013-02-22 20:20:00,
2013-02-22 15:21:00,34.6,23.7,30.32,ESE,119,0.0,2.0,64,0.00,,---,0.00,104.00,VWS V14.01,2013-02-22 20:21:00,
2013-02-22 15:23:00,34.5,23.6,30.32,SE,126,0.0,1.0,64,0.00,,---,0.00,102.00,VWS V14.01,2013-02-22 20:23:00,
2013-02-22 15:25:00,34.5,24.0,30.32,SE,126,0.0,1.0,65,0.00,,---,0.00,98.00,VWS V14.01,2013-02-22 20:25:00,
2013-02-22 15:26:00,34.5,24.0,30.32,SE,126,0.0,1.0,65,0.00,,---,0.00,95.00,VWS V14.01,2013-02-22 20:26:00,
2013-02-22 15:28:00,34.5,23.6,30.32,SE,132,0.0,1.0,64,0.00,,---,0.00,91.00,VWS V14.01,2013-02-22 20:28:00,
2013-02-22 15:30:00,34.5,23.6,30.32,SE,140,0.0,1.0,64,0.00,,---,0.00,90.00,VWS V14.01,2013-02-22 20:30:00,
2013-02-22 15:31:00,34.4,23.5,30.32,ESE,121,0.0,1.0,64,0.00,,---,0.00,91.00,VWS V14.01,2013-02-22 20:31:00,
2013-02-22 15:33:00,34.4,23.9,30.31,East,90,1.0,2.0,65,0.00,,---,0.00,91.00,VWS V14.01,2013-02-22 20:33:00,
2013-02-22 15:35:00,34.3,23.8,30.31,East,100,0.0,2.0,65,0.00,,---,0.00,88.00,VWS V14.01,2013-02-22 20:35:00,
2013-02-22 15:36:00,34.3,24.5,30.31,East,100,0.0,2.0,67,0.00,,---,0.00,83.00,VWS V14.01,2013-02-22 20:36:00,
2013-02-22 15:38:00,34.3,24.1,30.31,ESE,105,0.0,2.0,66,0.00,,---,0.00,72.00,VWS V14.01,2013-02-22 20:38:00,
2013-02-22 15:41:00,34.2,23.3,30.31,ESE,105,0.0,2.0,64,0.00,,---,0.00,62.00,VWS V14.01,2013-02-22 20:41:00,
2013-02-22 15:43:00,34.3,23.8,30.31,ESE,105,0.0,1.0,65,0.00,,---,0.00,54.00,VWS V14.01,2013-02-22 20:43:00,
2013-02-22 15:44:00,34.2,23.7,30.31,ESE,105,0.0,1.0,65,0.00,,---,0.00,54.00,VWS V14.01,2013-02-22 20:44:00,
2013-02-22 15:46:00,34.2,23.7,30.31,SE,140,0.0,1.0,65,0.00,,---,0.00,56.00,VWS V14.01,2013-02-22 20:46:00,
2013-02-22 15:48:00,34.1,24.3,30.31,SE,140,0.0,1.0,67,0.00,,---,0.00,69.00,VWS V14.01,2013-02-22 20:48:00,
2013-02-22 15:49:00,34.1,24.3,30.31,SE,140,0.0,1.0,67,0.00,,---,0.00,69.00,VWS V14.01,2013-02-22 20:49:00,
2013-02-22 15:51:00,34.0,24.6,30.31,SE,140,0.0,1.0,68,0.00,,---,0.00,72.00,VWS V14.01,2013-02-22 20:51:00,
2013-02-22 15:54:00,34.0,24.2,30.31,SE,140,0.0,0.0,67,0.00,,---,0.00,63.00,VWS V14.01,2013-02-22 20:54:00,
2013-02-22 15:56:00,34.0,24.2,30.31,ENE,76,1.0,1.0,67,0.00,,---,0.00,53.00,VWS V14.01,2013-02-22 20:56:00,
2013-02-22 15:57:00,34.0,24.2,30.31,NE,36,1.0,2.0,67,0.00,,---,0.00,53.00,VWS V14.01,2013-02-22 20:57:00,
2013-02-22 15:59:00,33.9,23.8,30.31,NE,42,0.0,2.0,66,0.00,,---,0.00,54.00,VWS V14.01,2013-02-22 20:59:00,
2013-02-22 16:01:00,33.9,24.8,30.31,NE,42,0.0,2.0,69,0.00,,---,0.00,54.00,VWS V14.01,2013-02-22 21:01:00,
2013-02-22 16:02:00,33.9,24.8,30.31,NE,42,0.0,2.0,69,0.00,,---,0.00,53.00,VWS V14.01,2013-02-22 21:02:00,
2013-02-22 16:04:00,33.9,24.8,30.31,East,84,0.0,1.0,69,0.00,,---,0.00,51.00,VWS V14.01,2013-02-22 21:04:00,
2013-02-22 16:06:00,33.9,24.1,30.31,East,84,0.0,1.0,67,0.00,,---,0.00,46.00,VWS V14.01,2013-02-22 21:06:00,
2013-02-22 16:07:00,33.9,24.1,30.31,East,84,0.0,1.0,67,0.00,,---,0.00,44.00,VWS V14.01,2013-02-22 21:07:00,
2013-02-22 16:09:00,33.9,24.5,30.32,East,84,0.0,1.0,68,0.00,,---,0.00,42.00,VWS V14.01,2013-02-22 21:09:00,
2013-02-22 16:11:00,33.9,24.8,30.32,ESE,103,0.0,1.0,69,0.00,,---,0.00,40.00,VWS V14.01,2013-02-22 21:11:00,
2013-02-22 16:12:00,33.9,24.8,30.32,ESE,104,0.0,0.0,69,0.00,,---,0.00,40.00,VWS V14.01,2013-02-22 21:12:00,
2013-02-22 16:14:00,33.9,24.5,30.32,ESE,104,0.0,0.0,68,0.00,,---,0.00,40.00,VWS V14.01,2013-02-22 21:14:00,
2013-02-22 16:15:00,33.9,24.5,30.32,ESE,104,0.0,0.0,68,0.00,,---,0.00,40.00,VWS V14.01,2013-02-22 21:15:00,
2013-02-22 16:16:00,33.9,24.8,30.32,ESE,105,0.0,0.0,69,0.00,,---,0.00,39.00,VWS V14.01,2013-02-22 21:16:00,
2013-02-22 16:17:00,33.9,24.5,30.32,SE,132,0.0,1.0,68,0.00,,---,0.00,39.00,VWS V14.01,2013-02-22 21:17:00,
2013-02-22 16:19:00,33.9,24.5,30.32,SE,132,0.0,1.0,68,0.00,,---,0.00,37.00,VWS V14.01,2013-02-22 21:19:00,
2013-02-22 16:20:00,33.8,24.4,30.32,SE,132,0.0,1.0,68,0.00,,---,0.00,37.00,VWS V14.01,2013-02-22 21:20:00,
2013-02-22 16:21:00,33.8,24.4,30.32,SE,132,0.0,1.0,68,0.00,,---,0.00,35.00,VWS V14.01,2013-02-22 21:21:00,
2013-02-22 16:23:00,33.8,24.0,30.32,SE,132,0.0,0.0,67,0.00,,---,0.00,33.00,VWS V14.01,2013-02-22 21:23:00,
2013-02-22 16:24:00,33.8,24.7,30.32,SE,132,0.0,0.0,69,0.00,,---,0.00,32.00,VWS V14.01,2013-02-22 21:24:00,
2013-02-22 16:25:00,33.8,24.7,30.32,SE,132,0.0,0.0,69,0.00,,---,0.00,33.00,VWS V14.01,2013-02-22 21:25:00,
2013-02-22 16:26:00,33.8,24.4,30.32,SE,132,0.0,0.0,68,0.00,,---,0.00,33.00,VWS V14.01,2013-02-22 21:26:00,
2013-02-22 16:28:00,33.8,25.1,30.32,SE,132,0.0,0.0,70,0.00,,---,0.00,33.00,VWS V14.01,2013-02-22 21:28:00,
2013-02-22 16:29:00,33.7,25.0,30.32,SE,132,0.0,0.0,70,0.00,,---,0.00,33.00,VWS V14.01,2013-02-22 21:29:00,
2013-02-22 16:30:00,33.7,25.0,30.32,SE,132,0.0,0.0,70,0.00,,---,0.00,33.00,VWS V14.01,2013-02-22 21:30:00,
2013-02-22 16:31:00,33.7,24.3,30.32,SE,132,0.0,0.0,68,0.00,,---,0.00,33.00,VWS V14.01,2013-02-22 21:31:00,
2013-02-22 16:33:00,33.7,24.3,30.32,SE,132,0.0,0.0,68,0.00,,---,0.00,32.00,VWS V14.01,2013-02-22 21:33:00,
2013-02-22 16:34:00,33.7,24.6,30.32,SE,132,0.0,0.0,69,0.00,,---,0.00,30.00,VWS V14.01,2013-02-22 21:34:00,
2013-02-22 16:35:00,33.7,25.0,30.32,SE,132,0.0,0.0,70,0.00,,---,0.00,28.00,VWS V14.01,2013-02-22 21:35:00,
2013-02-22 16:37:00,33.7,24.6,30.32,SE,132,0.0,0.0,69,0.00,,---,0.00,30.00,VWS V14.01,2013-02-22 21:37:00,
2013-02-22 16:38:00,33.8,24.7,30.32,SE,132,0.0,0.0,69,0.00,,---,0.00,30.00,VWS V14.01,2013-02-22 21:38:00,
2013-02-22 16:39:00,33.8,25.1,30.32,SE,132,0.0,0.0,70,0.00,,---,0.00,28.00,VWS V14.01,2013-02-22 21:39:00,
2013-02-22 16:41:00,33.8,25.1,30.32,SE,132,0.0,1.0,70,0.00,,---,0.00,28.00,VWS V14.01,2013-02-22 21:41:00,
2013-02-22 16:42:00,33.8,24.7,30.32,SE,132,0.0,1.0,69,0.00,,---,0.00,28.00,VWS V14.01,2013-02-22 21:42:00,
2013-02-22 16:43:00,33.7,24.6,30.32,SE,132,0.0,0.0,69,0.00,,---,0.00,26.00,VWS V14.01,2013-02-22 21:43:00,
2013-02-22 16:44:00,33.7,24.6,30.32,SE,132,0.0,0.0,69,0.00,,---,0.00,26.00,VWS V14.01,2013-02-22 21:44:00,
2013-02-22 16:46:00,33.7,25.0,30.33,SE,132,0.0,0.0,70,0.00,,---,0.00,25.00,VWS V14.01,2013-02-22 21:46:00,
2013-02-22 16:47:00,33.7,25.0,30.33,SE,132,0.0,0.0,70,0.00,,---,0.00,25.00,VWS V14.01,2013-02-22 21:47:00,
2013-02-22 16:48:00,33.7,25.0,30.33,SE,132,0.0,1.0,70,0.00,,---,0.00,25.00,VWS V14.01,2013-02-22 21:48:00,
2013-02-22 16:49:00,33.7,24.6,30.33,SE,132,0.0,1.0,69,0.00,,---,0.00,23.00,VWS V14.01,2013-02-22 21:49:00,
2013-02-22 16:51:00,33.6,24.5,30.33,SE,132,0.0,1.0,69,0.00,,---,0.00,23.00,VWS V14.01,2013-02-22 21:51:00,
2013-02-22 16:52:00,33.6,24.5,30.33,SE,132,0.0,0.0,69,0.00,,---,0.00,21.00,VWS V14.01,2013-02-22 21:52:00,
2013-02-22 16:53:00,33.6,24.9,30.33,SE,132,0.0,0.0,70,0.00,,---,0.00,21.00,VWS V14.01,2013-02-22 21:53:00,
2013-02-22 16:55:00,33.6,24.9,30.33,SE,132,0.0,0.0,70,0.00,,---,0.00,21.00,VWS V14.01,2013-02-22 21:55:00,
2013-02-22 16:56:00,33.6,24.5,30.33,SE,132,0.0,0.0,69,0.00,,---,0.00,19.00,VWS V14.01,2013-02-22 21:56:00,
2013-02-22 16:57:00,33.6,24.9,30.33,SE,132,0.0,0.0,70,0.00,,---,0.00,19.00,VWS V14.01,2013-02-22 21:57:00,
2013-02-22 16:59:00,33.6,24.9,30.33,SE,132,0.0,0.0,70,0.00,,---,0.00,19.00,VWS V14.01,2013-02-22 21:59:00,
2013-02-22 17:00:00,33.5,25.1,30.33,SE,132,0.0,0.0,71,0.00,,---,0.00,18.00,VWS V14.01,2013-02-22 22:00:00,
2013-02-22 17:01:00,33.5,25.8,30.33,SE,132,0.0,0.0,73,0.00,,---,0.00,18.00,VWS V14.01,2013-02-22 22:01:00,
2013-02-22 17:02:00,33.5,25.8,30.33,SE,132,0.0,0.0,73,0.00,,---,0.00,18.00,VWS V14.01,2013-02-22 22:02:00,
2013-02-22 17:04:00,33.4,25.0,30.33,SE,132,0.0,0.0,71,0.00,,---,0.00,14.00,VWS V14.01,2013-02-22 22:04:00,
2013-02-22 17:05:00,33.4,24.7,30.33,SE,132,0.0,0.0,70,0.00,,---,0.00,14.00,VWS V14.01,2013-02-22 22:05:00,
2013-02-22 17:07:00,33.4,25.0,30.33,SE,132,0.0,0.0,71,0.00,,---,0.00,12.00,VWS V14.01,2013-02-22 22:07:00,
2013-02-22 17:09:00,33.4,25.4,30.33,SE,132,0.0,0.0,72,0.00,,---,0.00,9.00,VWS V14.01,2013-02-22 22:09:00,
2013-02-22 17:10:00,33.3,25.3,30.33,SE,132,0.0,0.0,72,0.00,,---,0.00,5.00,VWS V14.01,2013-02-22 22:10:00,
2013-02-22 17:12:00,33.3,25.3,30.33,SE,132,0.0,0.0,72,0.00,,---,0.00,5.00,VWS V14.01,2013-02-22 22:12:00,
2013-02-22 17:14:00,33.2,25.2,30.33,SE,132,0.0,0.0,72,0.00,,---,0.00,5.00,VWS V14.01,2013-02-22 22:14:00,
2013-02-22 17:15:00,33.2,25.2,30.33,SE,132,0.0,0.0,72,0.00,,---,0.00,5.00,VWS V14.01,2013-02-22 22:15:00,
2013-02-22 17:17:00,33.2,25.2,30.33,SE,132,0.0,0.0,72,0.00,,---,0.00,0.00,VWS V14.01,2013-02-22 22:17:00,
2013-02-22 17:19:00,33.2,24.8,30.33,SE,132,0.0,0.0,71,0.00,,---,0.00,0.00,VWS V14.01,2013-02-22 22:19:00,
2013-02-22 17:20:00,33.2,24.8,30.33,SE,132,0.0,0.0,71,0.00,,---,0.00,0.00,VWS V14.01,2013-02-22 22:20:00,
2013-02-22 17:22:00,33.1,25.1,30.33,SE,132,0.0,0.0,72,0.00,,---,0.00,0.00,VWS V14.01,2013-02-22 22:22:00,
2013-02-22 17:24:00,33.1,25.4,30.32,SE,132,0.0,0.0,73,0.00,,---,0.00,0.00,VWS V14.01,2013-02-22 22:24:00,
2013-02-22 17:25:00,33.0,25.3,30.32,SE,132,0.0,0.0,73,0.00,,---,0.00,0.00,VWS V14.01,2013-02-22 22:25:00,
2013-02-22 17:27:00,33.0,25.3,30.32,SE,132,0.0,0.0,73,0.00,,---,0.00,0.00,VWS V14.01,2013-02-22 22:27:00,
2013-02-22 17:29:00,33.0,25.3,30.33,SE,132,0.0,0.0,73,0.00,,---,0.00,0.00,VWS V14.01,2013-02-22 22:29:00,
2013-02-22 17:30:00,33.0,25.3,30.33,SE,132,0.0,0.0,73,0.00,,---,0.00,0.00,VWS V14.01,2013-02-22 22:30:00,
2013-02-22 17:32:00,33.0,25.0,30.33,SE,132,0.0,0.0,72,0.00,,---,0.00,0.00,VWS V14.01,2013-02-22 22:32:00,
2013-02-22 17:35:00,32.9,24.9,30.33,SE,132,0.0,0.0,72,0.00,,---,0.00,0.00,VWS V14.01,2013-02-22 22:35:00,
2013-02-22 17:37:00,32.9,25.2,30.33,SE,132,0.0,0.0,73,0.00,,---,0.00,0.00,VWS V14.01,2013-02-22 22:37:00,
2013-02-22 17:40:00,32.9,25.2,30.33,SE,132,0.0,0.0,73,0.00,,---,0.00,0.00,VWS V14.01,2013-02-22 22:40:00,
2013-02-22 17:42:00,32.8,25.4,30.34,SE,132,0.0,0.0,74,0.00,,---,0.00,0.00,VWS V14.01,2013-02-22 22:42:00,
2013-02-22 17:45:00,32.8,25.4,30.34,SE,132,0.0,0.0,74,0.00,,---,0.00,0.00,VWS V14.01,2013-02-22 22:45:00,
2013-02-22 17:46:00,32.7,25.0,30.34,SE,132,0.0,0.0,73,0.00,,---,0.00,0.00,VWS V14.01,2013-02-22 22:46:00,
2013-02-22 17:47:00,32.8,25.4,30.34,SE,132,0.0,0.0,74,0.00,,---,0.00,0.00,VWS V14.01,2013-02-22 22:47:00,
2013-02-22 17:50:00,32.7,25.0,30.34,SE,132,0.0,0.0,73,0.00,,---,0.00,0.00,VWS V14.01,2013-02-22 22:50:00,
2013-02-22 17:51:00,32.7,25.3,30.34,SE,132,0.0,0.0,74,0.00,,---,0.00,0.00,VWS V14.01,2013-02-22 22:51:00,
2013-02-22 17:52:00,32.6,24.9,30.34,SE,132,0.0,0.0,73,0.00,,---,0.00,0.00,VWS V14.01,2013-02-22 22:52:00,
2013-02-22 17:53:00,32.6,24.9,30.34,SE,132,0.0,0.0,73,0.00,,---,0.00,0.00,VWS V14.01,2013-02-22 22:53:00,
2013-02-22 17:55:00,32.6,25.2,30.33,SE,132,0.0,0.0,74,0.00,,---,0.00,0.00,VWS V14.01,2013-02-22 22:55:00,
2013-02-22 17:56:00,32.6,25.6,30.33,SE,132,0.0,0.0,75,0.00,,---,0.00,0.00,VWS V14.01,2013-02-22 22:56:00,
2013-02-22 17:57:00,32.6,25.6,30.33,SE,132,0.0,0.0,75,0.00,,---,0.00,0.00,VWS V14.01,2013-02-22 22:57:00,
2013-02-22 17:58:00,32.6,25.6,30.33,SE,132,0.0,0.0,75,0.00,,---,0.00,0.00,VWS V14.01,2013-02-22 22:58:00,
2013-02-22 18:00:00,32.6,25.2,30.34,SE,132,0.0,0.0,74,0.00,,---,0.00,0.00,VWS V14.01,2013-02-22 23:00:00,
2013-02-22 18:01:00,32.6,25.2,30.34,SE,132,0.0,0.0,74,0.00,,---,0.00,0.00,VWS V14.01,2013-02-22 23:01:00,
2013-02-22 18:02:00,32.6,25.2,30.34,SE,132,0.0,0.0,74,0.00,,---,0.00,0.00,VWS V14.01,2013-02-22 23:02:00,
2013-02-22 18:03:00,32.6,25.6,30.33,SE,132,0.0,0.0,75,0.00,,---,0.00,0.00,VWS V14.01,2013-02-22 23:03:00,
2013-02-22 18:05:00,32.6,25.2,30.33,SE,132,0.0,0.0,74,0.00,,---,0.00,0.00,VWS V14.01,2013-02-22 23:05:00,
2013-02-22 18:06:00,32.6,25.6,30.33,SE,132,0.0,0.0,75,0.00,,---,0.00,0.00,VWS V14.01,2013-02-22 23:06:00,
2013-02-22 18:07:00,32.6,25.6,30.33,SE,132,0.0,0.0,75,0.00,,---,0.00,0.00,VWS V14.01,2013-02-22 23:07:00,
2013-02-22 18:08:00,32.6,25.6,30.33,SE,132,0.0,0.0,75,0.00,,---,0.00,0.00,VWS V14.01,2013-02-22 23:08:00,
2013-02-22 18:10:00,32.6,25.6,30.33,SE,132,0.0,0.0,75,0.00,,---,0.00,0.00,VWS V14.01,2013-02-22 23:10:00,
2013-02-22 18:11:00,32.5,25.5,30.33,SE,132,0.0,0.0,75,0.00,,---,0.00,0.00,VWS V14.01,2013-02-22 23:11:00,
2013-02-22 18:12:00,32.5,25.5,30.33,SE,132,0.0,0.0,75,0.00,,---,0.00,0.00,VWS V14.01,2013-02-22 23:12:00,
2013-02-22 18:13:00,32.5,25.5,30.33,SE,132,0.0,0.0,75,0.00,,---,0.00,0.00,VWS V14.01,2013-02-22 23:13:00,
2013-02-22 18:15:00,32.5,25.8,30.33,SE,132,0.0,0.0,76,0.00,,---,0.00,0.00,VWS V14.01,2013-02-22 23:15:00,
2013-02-22 18:16:00,32.5,25.8,30.34,SE,132,0.0,0.0,76,0.00,,---,0.00,0.00,VWS V14.01,2013-02-22 23:16:00,
2013-02-22 18:17:00,32.5,25.8,30.34,SE,132,0.0,0.0,76,0.00,,---,0.00,0.00,VWS V14.01,2013-02-22 23:17:00,
2013-02-22 18:18:00,32.5,25.5,30.34,SE,132,0.0,0.0,75,0.00,,---,0.00,0.00,VWS V14.01,2013-02-22 23:18:00,
2013-02-22 18:20:00,32.5,25.8,30.34,SE,132,0.0,0.0,76,0.00,,---,0.00,0.00,VWS V14.01,2013-02-22 23:20:00,
2013-02-22 18:22:00,32.5,25.8,30.34,SE,132,0.0,0.0,76,0.00,,---,0.00,0.00,VWS V14.01,2013-02-22 23:22:00,
2013-02-22 18:23:00,32.4,25.7,30.33,SE,132,0.0,0.0,76,0.00,,---,0.00,0.00,VWS V14.01,2013-02-22 23:23:00,
2013-02-22 18:25:00,32.4,25.7,30.33,SE,132,0.0,0.0,76,0.00,,---,0.00,0.00,VWS V14.01,2013-02-22 23:25:00,
2013-02-22 18:27:00,32.4,25.7,30.33,SE,132,0.0,0.0,76,0.00,,---,0.00,0.00,VWS V14.01,2013-02-22 23:27:00,
2013-02-22 18:28:00,32.4,26.0,30.33,SE,132,0.0,0.0,77,0.00,,---,0.00,0.00,VWS V14.01,2013-02-22 23:28:00,
2013-02-22 18:30:00,32.4,25.7,30.33,SE,132,0.0,0.0,76,0.00,,---,0.00,0.00,VWS V14.01,2013-02-22 23:30:00,
2013-02-22 18:32:00,32.4,26.0,30.33,SE,132,0.0,0.0,77,0.00,,---,0.00,0.00,VWS V14.01,2013-02-22 23:32:00,
2013-02-22 18:33:00,32.4,25.7,30.33,SE,132,0.0,0.0,76,0.00,,---,0.00,0.00,VWS V14.01,2013-02-22 23:33:00,
2013-02-22 18:35:00,32.4,26.0,30.33,SE,132,0.0,0.0,77,0.00,,---,0.00,0.00,VWS V14.01,2013-02-22 23:35:00,
2013-02-22 18:37:00,32.4,26.0,30.33,SE,132,0.0,0.0,77,0.00,,---,0.00,0.00,VWS V14.01,2013-02-22 23:37:00,
2013-02-22 18:38:00,32.4,26.0,30.33,SE,132,0.0,0.0,77,0.00,,---,0.00,0.00,VWS V14.01,2013-02-22 23:38:00,
2013-02-22 18:40:00,32.4,26.0,30.33,SE,132,0.0,0.0,77,0.00,,---,0.00,0.00,VWS V14.01,2013-02-22 23:40:00,
2013-02-22 18:42:00,32.4,25.7,30.33,SE,132,0.0,0.0,76,0.00,,---,0.00,0.00,VWS V14.01,2013-02-22 23:42:00,
2013-02-22 18:43:00,32.4,25.7,30.33,SE,132,0.0,0.0,76,0.00,,---,0.00,0.00,VWS V14.01,2013-02-22 23:43:00,
2013-02-22 18:46:00,32.4,26.0,30.33,SE,132,0.0,0.0,77,0.00,,---,0.00,0.00,VWS V14.01,2013-02-22 23:46:00,
2013-02-22 18:47:00,32.4,25.7,30.33,SE,132,0.0,0.0,76,0.00,,---,0.00,0.00,VWS V14.01,2013-02-22 23:47:00,
2013-02-22 18:48:00,32.4,25.7,30.33,SE,132,0.0,0.0,76,0.00,,---,0.00,0.00,VWS V14.01,2013-02-22 23:48:00,
2013-02-22 18:51:00,32.4,26.0,30.33,SE,132,0.0,0.0,77,0.00,,---,0.00,0.00,VWS V14.01,2013-02-22 23:51:00,
2013-02-22 18:52:00,32.4,26.0,30.33,SE,132,0.0,0.0,77,0.00,,---,0.00,0.00,VWS V14.01,2013-02-22 23:52:00,
2013-02-22 18:53:00,32.4,26.3,30.33,SE,132,0.0,0.0,78,0.00,,---,0.00,0.00,VWS V14.01,2013-02-22 23:53:00,
2013-02-22 18:54:00,32.4,26.3,30.33,SE,132,0.0,0.0,78,0.00,,---,0.00,0.00,VWS V14.01,2013-02-22 23:54:00,
2013-02-22 18:56:00,32.4,26.0,30.33,SE,132,0.0,0.0,77,0.00,,---,0.00,0.00,VWS V14.01,2013-02-22 23:56:00,
2013-02-22 18:57:00,32.4,26.3,30.33,SE,132,0.0,0.0,78,0.00,,---,0.00,0.00,VWS V14.01,2013-02-22 23:57:00,
2013-02-22 18:58:00,32.4,26.0,30.33,SE,132,0.0,0.0,77,0.00,,---,0.00,0.00,VWS V14.01,2013-02-22 23:58:00,
2013-02-22 18:59:00,32.4,26.3,30.33,SE,132,0.0,0.0,78,0.00,,---,0.00,0.00,VWS V14.01,2013-02-22 23:59:00,
2013-02-22 19:01:00,32.3,26.2,30.33,SE,132,0.0,0.0,78,0.00,,---,0.00,0.00,VWS V14.01,2013-02-23 00:01:00,
2013-02-22 19:02:00,32.3,26.2,30.33,SE,132,0.0,0.0,78,0.00,,---,0.00,0.00,VWS V14.01,2013-02-23 00:02:00,
2013-02-22 19:03:00,32.3,26.2,30.33,SE,132,0.0,0.0,78,0.00,,---,0.00,0.00,VWS V14.01,2013-02-23 00:03:00,
2013-02-22 19:04:00,32.3,26.5,30.33,SE,132,0.0,0.0,79,0.00,,---,0.00,0.00,VWS V14.01,2013-02-23 00:04:00,
2013-02-22 19:06:00,32.3,26.5,30.33,SE,132,0.0,0.0,79,0.00,,---,0.00,0.00,VWS V14.01,2013-02-23 00:06:00,
2013-02-22 19:08:00,32.3,26.5,30.33,SE,132,0.0,0.0,79,0.00,,---,0.00,0.00,VWS V14.01,2013-02-23 00:08:00,
2013-02-22 19:09:00,32.3,26.5,30.33,SE,132,0.0,0.0,79,0.00,,---,0.00,0.00,VWS V14.01,2013-02-23 00:09:00,
2013-02-22 19:11:00,32.3,26.2,30.33,SE,132,0.0,0.0,78,0.00,,---,0.00,0.00,VWS V14.01,2013-02-23 00:11:00,
2013-02-22 19:13:00,32.3,26.2,30.33,SE,132,0.0,0.0,78,0.00,,---,0.00,0.00,VWS V14.01,2013-02-23 00:13:00,
2013-02-22 19:14:00,32.3,26.5,30.33,SE,132,0.0,0.0,79,0.00,,---,0.00,0.00,VWS V14.01,2013-02-23 00:14:00,
2013-02-22 19:16:00,32.3,26.5,30.33,SE,132,0.0,0.0,79,0.00,,---,0.00,0.00,VWS V14.01,2013-02-23 00:16:00,
2013-02-22 19:18:00,32.3,26.5,30.33,SE,132,0.0,0.0,79,0.00,,---,0.00,0.00,VWS V14.01,2013-02-23 00:18:00,
2013-02-22 19:19:00,32.3,26.5,30.33,SE,132,0.0,0.0,79,0.00,,---,0.00,0.00,VWS V14.01,2013-02-23 00:19:00,
2013-02-22 19:21:00,32.3,26.2,30.33,SE,132,0.0,0.0,78,0.00,,---,0.00,0.00,VWS V14.01,2013-02-23 00:21:00,
2013-02-22 19:23:00,32.4,26.3,30.32,SE,132,0.0,0.0,78,0.00,,---,0.00,0.00,VWS V14.01,2013-02-23 00:23:00,
2013-02-22 19:24:00,32.4,26.3,30.32,SE,132,0.0,0.0,78,0.00,,---,0.00,0.00,VWS V14.01,2013-02-23 00:24:00,
2013-02-22 19:26:00,32.4,26.6,30.32,SE,132,0.0,0.0,79,0.00,,---,0.00,0.00,VWS V14.01,2013-02-23 00:26:00,
2013-02-22 19:28:00,32.4,26.3,30.32,SE,132,0.0,0.0,78,0.00,,---,0.00,0.00,VWS V14.01,2013-02-23 00:28:00,
2013-02-22 19:29:00,32.4,26.3,30.32,SE,132,0.0,0.0,78,0.00,,---,0.00,0.00,VWS V14.01,2013-02-23 00:29:00,
2013-02-22 19:32:00,32.5,26.1,30.32,SE,132,0.0,0.0,77,0.00,,---,0.00,0.00,VWS V14.01,2013-02-23 00:32:00,
2013-02-22 19:33:00,32.5,26.1,30.32,SE,132,0.0,0.0,77,0.00,,---,0.00,0.00,VWS V14.01,2013-02-23 00:33:00,
2013-02-22 19:34:00,32.5,26.1,30.32,SE,132,0.0,0.0,77,0.00,,---,0.00,0.00,VWS V14.01,2013-02-23 00:34:00,
2013-02-22 19:37:00,32.5,26.4,30.32,SE,132,0.0,0.0,78,0.00,,---,0.00,0.00,VWS V14.01,2013-02-23 00:37:00,
2013-02-22 19:38:00,32.5,26.7,30.32,SE,132,0.0,0.0,79,0.00,,---,0.00,0.00,VWS V14.01,2013-02-23 00:38:00,
2013-02-22 19:39:00,32.5,26.7,30.32,SE,132,0.0,0.0,79,0.00,,---,0.00,0.00,VWS V14.01,2013-02-23 00:39:00,
2013-02-22 19:42:00,32.4,26.6,30.32,SE,132,0.0,0.0,79,0.00,,---,0.00,0.00,VWS V14.01,2013-02-23 00:42:00,
2013-02-22 19:43:00,32.4,26.6,30.32,SE,132,0.0,0.0,79,0.00,,---,0.00,0.00,VWS V14.01,2013-02-23 00:43:00,
2013-02-22 19:45:00,32.5,26.7,30.32,SE,132,0.0,0.0,79,0.00,,---,0.00,0.00,VWS V14.01,2013-02-23 00:45:00,
2013-02-22 19:47:00,32.4,26.6,30.32,SE,132,0.0,0.0,79,0.00,,---,0.00,0.00,VWS V14.01,2013-02-23 00:47:00,
2013-02-22 19:48:00,32.4,26.6,30.32,SE,132,0.0,0.0,79,0.00,,---,0.00,0.00,VWS V14.01,2013-02-23 00:48:00,
2013-02-22 19:50:00,32.4,26.9,30.32,SE,132,0.0,0.0,80,0.00,,---,0.00,0.00,VWS V14.01,2013-02-23 00:50:00,
2013-02-22 19:52:00,32.4,26.9,30.32,SE,132,0.0,0.0,80,0.00,,---,0.00,0.00,VWS V14.01,2013-02-23 00:52:00,
2013-02-22 19:53:00,32.3,26.8,30.32,SE,132,0.0,0.0,80,0.00,,---,0.00,0.00,VWS V14.01,2013-02-23 00:53:00,
2013-02-22 19:55:00,32.3,26.8,30.32,SE,132,0.0,0.0,80,0.00,,---,0.00,0.00,VWS V14.01,2013-02-23 00:55:00,
2013-02-22 19:57:00,32.3,26.8,30.32,SE,132,0.0,0.0,80,0.00,,---,0.00,0.00,VWS V14.01,2013-02-23 00:57:00,
2013-02-22 19:58:00,32.3,27.1,30.32,SE,132,0.0,0.0,81,0.00,,---,0.00,0.00,VWS V14.01,2013-02-23 00:58:00,
2013-02-22 20:00:00,32.4,26.9,30.32,SE,132,0.0,0.0,80,0.00,,---,0.00,0.00,VWS V14.01,2013-02-23 01:00:00,
2013-02-22 20:02:00,32.4,26.3,30.32,SE,132,0.0,0.0,78,0.00,,---,0.00,0.00,VWS V14.01,2013-02-23 01:02:00,
2013-02-22 20:04:00,32.4,26.3,30.32,SE,132,0.0,0.0,78,0.00,,---,0.00,0.00,VWS V14.01,2013-02-23 01:04:00,
2013-02-22 20:05:00,32.5,26.4,30.32,SE,132,0.0,0.0,78,0.00,,---,0.00,0.00,VWS V14.01,2013-02-23 01:05:00,
2013-02-22 20:07:00,32.5,26.7,30.32,SE,132,0.0,0.0,79,0.00,,---,0.00,0.00,VWS V14.01,2013-02-23 01:07:00,
2013-02-22 20:09:00,32.5,26.7,30.32,SE,132,0.0,0.0,79,0.00,,---,0.00,0.00,VWS V14.01,2013-02-23 01:09:00,
2013-02-22 20:10:00,32.5,27.0,30.32,SE,132,0.0,0.0,80,0.00,,---,0.00,0.00,VWS V14.01,2013-02-23 01:10:00,
2013-02-22 20:11:00,32.5,27.0,30.32,SE,132,0.0,0.0,80,0.00,,---,0.00,0.00,VWS V14.01,2013-02-23 01:11:00,
2013-02-22 20:12:00,32.4,26.3,30.32,SE,132,0.0,0.0,78,0.00,,---,0.00,0.00,VWS V14.01,2013-02-23 01:12:00,
2013-02-22 20:14:00,32.4,26.3,30.32,SE,132,0.0,0.0,78,0.00,,---,0.00,0.00,VWS V14.01,2013-02-23 01:14:00,
2013-02-22 20:15:00,32.4,26.6,30.32,SE,132,0.0,0.0,79,0.00,,---,0.00,0.00,VWS V14.01,2013-02-23 01:15:00,
2013-02-22 20:16:00,32.4,26.6,30.32,SE,132,0.0,0.0,79,0.00,,---,0.00,0.00,VWS V14.01,2013-02-23 01:16:00,
2013-02-22 20:17:00,32.3,26.8,30.32,SE,132,0.0,0.0,80,0.00,,---,0.00,0.00,VWS V14.01,2013-02-23 01:17:00,
2013-02-22 20:19:00,32.3,26.8,30.32,SE,132,0.0,0.0,80,0.00,,---,0.00,0.00,VWS V14.01,2013-02-23 01:19:00,
2013-02-22 20:20:00,32.3,26.8,30.32,SE,132,0.0,0.0,80,0.00,,---,0.00,0.00,VWS V14.01,2013-02-23 01:20:00,
2013-02-22 20:21:00,32.3,26.8,30.32,SE,132,0.0,0.0,80,0.00,,---,0.00,0.00,VWS V14.01,2013-02-23 01:21:00,
2013-02-22 20:22:00,32.3,26.5,30.32,SE,132,0.0,0.0,79,0.00,,---,0.00,0.00,VWS V14.01,2013-02-23 01:22:00,
2013-02-22 20:24:00,32.3,26.8,30.32,SE,132,0.0,0.0,80,0.00,,---,0.00,0.00,VWS V14.01,2013-02-23 01:24:00,
2013-02-22 20:25:00,32.3,26.8,30.32,SE,132,0.0,0.0,80,0.00,,---,0.00,0.00,VWS V14.01,2013-02-23 01:25:00,
2013-02-22 20:26:00,32.2,26.7,30.32,SE,132,0.0,0.0,80,0.00,,---,0.00,0.00,VWS V14.01,2013-02-23 01:26:00,
2013-02-22 20:28:00,32.2,26.7,30.32,SE,132,0.0,0.0,80,0.00,,---,0.00,0.00,VWS V14.01,2013-02-23 01:28:00,
2013-02-22 20:29:00,32.3,26.8,30.32,SE,132,0.0,0.0,80,0.00,,---,0.00,0.00,VWS V14.01,2013-02-23 01:29:00,
2013-02-22 20:30:00,32.3,26.8,30.32,SE,132,0.0,0.0,80,0.00,,---,0.00,0.00,VWS V14.01,2013-02-23 01:30:00,
2013-02-22 20:31:00,32.3,26.8,30.32,SE,132,0.0,0.0,80,0.00,,---,0.00,0.00,VWS V14.01,2013-02-23 01:31:00,
2013-02-22 20:33:00,32.3,26.8,30.32,SE,132,0.0,0.0,80,0.00,,---,0.00,0.00,VWS V14.01,2013-02-23 01:33:00,
2013-02-22 20:34:00,32.3,26.8,30.32,SE,132,0.0,0.0,80,0.00,,---,0.00,0.00,VWS V14.01,2013-02-23 01:34:00,
2013-02-22 20:36:00,32.3,26.8,30.32,SE,132,0.0,0.0,80,0.00,,---,0.00,0.00,VWS V14.01,2013-02-23 01:36:00,
2013-02-22 20:38:00,32.3,27.1,30.32,SE,132,0.0,0.0,81,0.00,,---,0.00,0.00,VWS V14.01,2013-02-23 01:38:00,
2013-02-22 20:39:00,32.3,27.1,30.32,SE,132,0.0,0.0,81,0.00,,---,0.00,0.00,VWS V14.01,2013-02-23 01:39:00,
2013-02-22 20:41:00,32.3,27.1,30.32,SE,132,0.0,0.0,81,0.00,,---,0.00,0.00,VWS V14.01,2013-02-23 01:41:00,
2013-02-22 20:43:00,32.3,27.1,30.32,SE,132,0.0,0.0,81,0.00,,---,0.00,0.00,VWS V14.01,2013-02-23 01:43:00,
2013-02-22 20:44:00,32.3,27.1,30.32,SE,132,0.0,0.0,81,0.00,,---,0.00,0.00,VWS V14.01,2013-02-23 01:44:00,
2013-02-22 20:46:00,32.3,27.1,30.32,SE,132,0.0,0.0,81,0.00,,---,0.00,0.00,VWS V14.01,2013-02-23 01:46:00,
2013-02-22 20:47:00,32.3,27.1,30.32,SE,132,0.0,0.0,81,0.00,,---,0.00,0.00,VWS V14.01,2013-02-23 01:47:00,
2013-02-22 20:48:00,32.3,27.1,30.32,SE,132,0.0,0.0,81,0.00,,---,0.00,0.00,VWS V14.01,2013-02-23 01:48:00,
2013-02-22 20:49:00,32.3,27.1,30.32,SE,132,0.0,0.0,81,0.00,,---,0.00,0.00,VWS V14.01,2013-02-23 01:49:00,
2013-02-22 20:51:00,32.3,26.8,30.32,SE,132,0.0,0.0,80,0.00,,---,0.00,0.00,VWS V14.01,2013-02-23 01:51:00,
2013-02-22 20:52:00,32.3,27.1,30.32,SE,132,0.0,0.0,81,0.00,,---,0.00,0.00,VWS V14.01,2013-02-23 01:52:00,
2013-02-22 20:53:00,32.4,26.9,30.32,SE,132,0.0,0.0,80,0.00,,---,0.00,0.00,VWS V14.01,2013-02-23 01:53:00,
2013-02-22 20:54:00,32.4,27.2,30.32,SE,132,0.0,0.0,81,0.00,,---,0.00,0.00,VWS V14.01,2013-02-23 01:54:00,
2013-02-22 20:57:00,32.4,27.2,30.32,SE,132,0.0,0.0,81,0.00,,---,0.00,0.00,VWS V14.01,2013-02-23 01:57:00,
2013-02-22 20:58:00,32.4,27.2,30.32,SE,132,0.0,0.0,81,0.00,,---,0.00,0.00,VWS V14.01,2013-02-23 01:58:00,
2013-02-22 21:00:00,32.4,26.9,30.32,SE,132,0.0,0.0,80,0.00,,---,0.00,0.00,VWS V14.01,2013-02-23 02:00:00,
2013-02-22 21:02:00,32.5,27.0,30.32,SE,132,0.0,0.0,80,0.00,,---,0.00,0.00,VWS V14.01,2013-02-23 02:02:00,
2013-02-22 21:03:00,32.5,27.0,30.32,SE,132,0.0,0.0,80,0.00,,---,0.00,0.00,VWS V14.01,2013-02-23 02:03:00,
2013-02-22 21:05:00,32.5,27.0,30.32,SE,132,0.0,0.0,80,0.00,,---,0.00,0.00,VWS V14.01,2013-02-23 02:05:00,
2013-02-22 21:07:00,32.5,27.0,30.32,SE,132,0.0,0.0,80,0.00,,---,0.00,0.00,VWS V14.01,2013-02-23 02:07:00,
2013-02-22 21:08:00,32.5,27.0,30.32,SE,132,0.0,0.0,80,0.00,,---,0.00,0.00,VWS V14.01,2013-02-23 02:08:00,
2013-02-22 21:10:00,32.5,26.7,30.32,SE,132,0.0,0.0,79,0.00,,---,0.00,0.00,VWS V14.01,2013-02-23 02:10:00,
2013-02-22 21:12:00,32.5,27.0,30.32,SE,132,0.0,0.0,80,0.00,,---,0.00,0.00,VWS V14.01,2013-02-23 02:12:00,
2013-02-22 21:13:00,32.5,27.0,30.32,SE,132,0.0,0.0,80,0.00,,---,0.00,0.00,VWS V14.01,2013-02-23 02:13:00,
2013-02-22 21:15:00,32.5,26.7,30.32,SE,132,0.0,0.0,79,0.00,,---,0.00,0.00,VWS V14.01,2013-02-23 02:15:00,
2013-02-22 21:17:00,32.5,26.7,30.32,SE,132,0.0,0.0,79,0.00,,---,0.00,0.00,VWS V14.01,2013-02-23 02:17:00,
2013-02-22 21:18:00,32.5,26.7,30.32,SE,132,0.0,0.0,79,0.00,,---,0.00,0.00,VWS V14.01,2013-02-23 02:18:00,
2013-02-22 21:19:00,32.5,26.7,30.32,SE,132,0.0,0.0,79,0.00,,---,0.00,0.00,VWS V14.01,2013-02-23 02:19:00,
2013-02-22 21:20:00,32.5,26.7,30.32,SE,132,0.0,0.0,79,0.00,,---,0.00,0.00,VWS V14.01,2013-02-23 02:20:00,
2013-02-22 21:22:00,32.5,26.7,30.32,SE,132,0.0,0.0,79,0.00,,---,0.00,0.00,VWS V14.01,2013-02-23 02:22:00,
2013-02-22 21:23:00,32.5,26.7,30.32,SE,132,0.0,0.0,79,0.00,,---,0.00,0.00,VWS V14.01,2013-02-23 02:23:00,
2013-02-22 21:24:00,32.5,26.7,30.32,SE,132,0.0,0.0,79,0.00,,---,0.00,0.00,VWS V14.01,2013-02-23 02:24:00,
2013-02-22 21:25:00,32.5,27.0,30.32,SE,132,0.0,0.0,80,0.00,,---,0.00,0.00,VWS V14.01,2013-02-23 02:25:00,
2013-02-22 21:27:00,32.5,26.7,30.31,SE,132,0.0,0.0,79,0.00,,---,0.00,0.00,VWS V14.01,2013-02-23 02:27:00,
2013-02-22 21:28:00,32.5,27.0,30.31,SE,132,0.0,0.0,80,0.00,,---,0.00,0.00,VWS V14.01,2013-02-23 02:28:00,
2013-02-22 21:29:00,32.5,27.0,30.31,SE,132,0.0,0.0,80,0.00,,---,0.00,0.00,VWS V14.01,2013-02-23 02:29:00,
2013-02-22 21:30:00,32.5,27.0,30.31,SE,132,0.0,0.0,80,0.00,,---,0.00,0.00,VWS V14.01,2013-02-23 02:30:00,
2013-02-22 21:32:00,32.5,26.7,30.31,SE,132,0.0,0.0,79,0.00,,---,0.00,0.00,VWS V14.01,2013-02-23 02:32:00,
2013-02-22 21:33:00,32.5,26.7,30.31,SE,132,0.0,0.0,79,0.00,,---,0.00,0.00,VWS V14.01,2013-02-23 02:33:00,
2013-02-22 21:34:00,32.5,26.7,30.32,SE,132,0.0,0.0,79,0.00,,---,0.00,0.00,VWS V14.01,2013-02-23 02:34:00,
2013-02-22 21:35:00,32.5,27.0,30.32,SE,132,0.0,0.0,80,0.00,,---,0.00,0.00,VWS V14.01,2013-02-23 02:35:00,
2013-02-22 21:37:00,32.5,27.0,30.32,SE,132,0.0,0.0,80,0.00,,---,0.00,0.00,VWS V14.01,2013-02-23 02:37:00,
2013-02-22 21:38:00,32.4,26.9,30.31,SE,132,0.0,0.0,80,0.00,,---,0.00,0.00,VWS V14.01,2013-02-23 02:38:00,
2013-02-22 21:39:00,32.5,27.0,30.31,SE,132,0.0,0.0,80,0.00,,---,0.00,0.00,VWS V14.01,2013-02-23 02:39:00,
2013-02-22 21:40:00,32.4,26.9,30.31,SE,132,0.0,0.0,80,0.00,,---,0.00,0.00,VWS V14.01,2013-02-23 02:40:00,
2013-02-22 21:43:00,32.4,27.2,30.31,SE,132,0.0,0.0,81,0.00,,---,0.00,0.00,VWS V14.01,2013-02-23 02:43:00,
2013-02-22 21:44:00,32.4,27.2,30.31,SE,132,0.0,0.0,81,0.00,,---,0.00,0.00,VWS V14.01,2013-02-23 02:44:00,
2013-02-22 21:45:00,32.4,26.9,30.31,SE,132,0.0,0.0,80,0.00,,---,0.00,0.00,VWS V14.01,2013-02-23 02:45:00,
2013-02-22 21:48:00,32.3,26.8,30.31,SE,132,0.0,0.0,80,0.00,,---,0.00,0.00,VWS V14.01,2013-02-23 02:48:00,
2013-02-22 21:49:00,32.4,26.9,30.31,SE,132,0.0,0.0,80,0.00,,---,0.00,0.00,VWS V14.01,2013-02-23 02:49:00,
2013-02-22 21:50:00,32.3,26.8,30.31,SE,132,0.0,0.0,80,0.00,,---,0.00,0.00,VWS V14.01,2013-02-23 02:50:00,
2013-02-22 21:53:00,32.4,26.9,30.31,SE,132,0.0,0.0,80,0.00,,---,0.00,0.00,VWS V14.01,2013-02-23 02:53:00,
2013-02-22 21:54:00,32.3,26.8,30.31,SE,132,0.0,0.0,80,0.00,,---,0.00,0.00,VWS V14.01,2013-02-23 02:54:00,
2013-02-22 21:55:00,32.3,27.1,30.31,SE,132,0.0,0.0,81,0.00,,---,0.00,0.00,VWS V14.01,2013-02-23 02:55:00,
2013-02-22 21:58:00,32.3,26.8,30.31,SE,132,0.0,0.0,80,0.00,,---,0.00,0.00,VWS V14.01,2013-02-23 02:58:00,
2013-02-22 21:59:00,32.3,26.8,30.31,SE,132,0.0,0.0,80,0.00,,---,0.00,0.00,VWS V14.01,2013-02-23 02:59:00,
2013-02-22 22:00:00,32.3,26.8,30.31,SE,132,0.0,0.0,80,0.00,,---,0.00,0.00,VWS V14.01,2013-02-23 03:00:00,
2013-02-22 22:03:00,32.3,27.1,30.31,SE,132,0.0,0.0,81,0.00,,---,0.00,0.00,VWS V14.01,2013-02-23 03:03:00,
2013-02-22 22:04:00,32.3,27.1,30.31,SE,132,0.0,0.0,81,0.00,,---,0.00,0.00,VWS V14.01,2013-02-23 03:04:00,
2013-02-22 22:05:00,32.3,27.4,30.31,SE,132,0.0,0.0,82,0.00,,---,0.00,0.00,VWS V14.01,2013-02-23 03:05:00,
2013-02-22 22:08:00,32.3,27.4,30.31,SE,132,0.0,0.0,82,0.00,,---,0.00,0.00,VWS V14.01,2013-02-23 03:08:00,
2013-02-22 22:09:00,32.2,27.3,30.31,SE,132,0.0,0.0,82,0.00,,---,0.00,0.00,VWS V14.01,2013-02-23 03:09:00,
2013-02-22 22:10:00,32.2,27.0,30.31,SE,132,0.0,0.0,81,0.00,,---,0.00,0.00,VWS V14.01,2013-02-23 03:10:00,
2013-02-22 22:14:00,32.2,27.0,30.31,SE,132,0.0,0.0,81,0.00,,---,0.00,0.00,VWS V14.01,2013-02-23 03:14:00,
2013-02-22 22:16:00,32.2,27.3,30.31,SE,132,0.0,0.0,82,0.00,,---,0.00,0.00,VWS V14.01,2013-02-23 03:16:00,
2013-02-22 22:19:00,32.2,27.0,30.31,SE,132,0.0,0.0,81,0.00,,---,0.00,0.00,VWS V14.01,2013-02-23 03:19:00,
2013-02-22 22:21:00,32.2,27.0,30.31,SE,132,0.0,0.0,81,0.00,,---,0.00,0.00,VWS V14.01,2013-02-23 03:21:00,
2013-02-22 22:24:00,32.2,27.3,30.31,SE,132,0.0,0.0,82,0.00,,---,0.00,0.00,VWS V14.01,2013-02-23 03:24:00,
2013-02-22 22:26:00,32.2,27.0,30.30,SE,132,0.0,0.0,81,0.00,,---,0.00,0.00,VWS V14.01,2013-02-23 03:26:00,
2013-02-22 22:29:00,32.2,27.3,30.30,SE,132,0.0,0.0,82,0.00,,---,0.00,0.00,VWS V14.01,2013-02-23 03:29:00,
2013-02-22 22:31:00,32.2,27.0,30.30,SE,132,0.0,0.0,81,0.00,,---,0.00,0.00,VWS V14.01,2013-02-23 03:31:00,
2013-02-22 22:34:00,32.2,27.0,30.29,SE,132,0.0,0.0,81,0.00,,---,0.00,0.00,VWS V14.01,2013-02-23 03:34:00,
2013-02-22 22:36:00,32.2,27.3,30.30,SE,132,0.0,0.0,82,0.00,,---,0.00,0.00,VWS V14.01,2013-02-23 03:36:00,
2013-02-22 22:39:00,32.2,27.0,30.30,SE,132,0.0,0.0,81,0.00,,---,0.00,0.00,VWS V14.01,2013-02-23 03:39:00,
2013-02-22 22:40:00,32.2,27.0,30.30,SE,132,0.0,0.0,81,0.00,,---,0.00,0.00,VWS V14.01,2013-02-23 03:40:00,
2013-02-22 22:41:00,32.2,27.0,30.30,SE,132,0.0,0.0,81,0.00,,---,0.00,0.00,VWS V14.01,2013-02-23 03:41:00,
2013-02-22 22:44:00,32.3,27.1,30.30,SE,132,0.0,0.0,81,0.00,,---,0.00,0.00,VWS V14.01,2013-02-23 03:44:00,
2013-02-22 22:45:00,32.3,27.1,30.30,SE,132,0.0,0.0,81,0.00,,---,0.00,0.00,VWS V14.01,2013-02-23 03:45:00,
2013-02-22 22:46:00,32.3,27.1,30.30,SE,132,0.0,0.0,81,0.00,,---,0.00,0.00,VWS V14.01,2013-02-23 03:46:00,
2013-02-22 22:49:00,32.3,27.4,30.30,SE,132,0.0,0.0,82,0.00,,---,0.00,0.00,VWS V14.01,2013-02-23 03:49:00,
2013-02-22 22:50:00,32.2,27.3,30.30,SE,132,0.0,0.0,82,0.00,,---,0.00,0.00,VWS V14.01,2013-02-23 03:50:00,
2013-02-22 22:51:00,32.2,27.3,30.30,SE,132,0.0,0.0,82,0.00,,---,0.00,0.00,VWS V14.01,2013-02-23 03:51:00,
2013-02-22 22:54:00,32.2,27.3,30.30,SE,132,0.0,0.0,82,0.00,,---,0.00,0.00,VWS V14.01,2013-02-23 03:54:00,
2013-02-22 22:55:00,32.2,27.3,30.30,SE,132,0.0,0.0,82,0.00,,---,0.00,0.00,VWS V14.01,2013-02-23 03:55:00,
2013-02-22 22:56:00,32.2,27.3,30.30,SE,132,0.0,0.0,82,0.00,,---,0.00,0.00,VWS V14.01,2013-02-23 03:56:00,
2013-02-22 22:59:00,32.2,27.6,30.30,SE,132,0.0,0.0,83,0.00,,---,0.00,0.00,VWS V14.01,2013-02-23 03:59:00,
2013-02-22 23:00:00,32.2,27.6,30.30,SE,132,0.0,0.0,83,0.00,,---,0.00,0.00,VWS V14.01,2013-02-23 04:00:00,
2013-02-22 23:02:00,32.2,27.6,30.30,SE,132,0.0,0.0,83,0.00,,---,0.00,0.00,VWS V14.01,2013-02-23 04:02:00,
2013-02-22 23:04:00,32.1,27.2,30.30,SE,132,0.0,0.0,82,0.00,,---,0.00,0.00,VWS V14.01,2013-02-23 04:04:00,
2013-02-22 23:05:00,32.1,27.2,30.29,SE,132,0.0,0.0,82,0.00,,---,0.00,0.00,VWS V14.01,2013-02-23 04:05:00,
2013-02-22 23:07:00,32.2,27.3,30.30,SE,132,0.0,0.0,82,0.00,,---,0.00,0.00,VWS V14.01,2013-02-23 04:07:00,
2013-02-22 23:10:00,32.1,27.5,30.30,SE,132,0.0,0.0,83,0.00,,---,0.00,0.00,VWS V14.01,2013-02-23 04:10:00,
2013-02-22 23:12:00,32.1,27.5,30.30,SE,132,0.0,0.0,83,0.00,,---,0.00,0.00,VWS V14.01,2013-02-23 04:12:00,
2013-02-22 23:15:00,32.1,27.5,30.30,SE,132,0.0,0.0,83,0.00,,---,0.00,0.00,VWS V14.01,2013-02-23 04:15:00,
2013-02-22 23:17:00,32.1,27.8,30.30,SE,132,0.0,0.0,84,0.00,,---,0.00,0.00,VWS V14.01,2013-02-23 04:17:00,
2013-02-22 23:20:00,32.1,27.5,30.29,SE,132,0.0,0.0,83,0.00,,---,0.00,0.00,VWS V14.01,2013-02-23 04:20:00,
2013-02-22 23:22:00,32.1,27.8,30.29,SE,132,0.0,0.0,84,0.00,,---,0.00,0.00,VWS V14.01,2013-02-23 04:22:00,
2013-02-22 23:25:00,32.1,27.5,30.29,SE,132,0.0,0.0,83,0.00,,---,0.00,0.00,VWS V14.01,2013-02-23 04:25:00,
2013-02-22 23:27:00,32.1,27.5,30.29,SE,132,0.0,0.0,83,0.00,,---,0.00,0.00,VWS V14.01,2013-02-23 04:27:00,
2013-02-22 23:30:00,32.1,27.8,30.29,SE,132,0.0,0.0,84,0.00,,---,0.00,0.00,VWS V14.01,2013-02-23 04:30:00,
2013-02-22 23:31:00,32.1,27.8,30.29,SE,132,0.0,0.0,84,0.00,,---,0.00,0.00,VWS V14.01,2013-02-23 04:31:00,
2013-02-22 23:32:00,32.0,28.0,30.29,SE,132,0.0,0.0,85,0.00,,---,0.00,0.00,VWS V14.01,2013-02-23 04:32:00,
2013-02-22 23:35:00,32.0,28.0,30.29,SE,132,0.0,0.0,85,0.00,,---,0.00,0.00,VWS V14.01,2013-02-23 04:35:00,
2013-02-22 23:36:00,32.0,28.0,30.29,SE,132,0.0,0.0,85,0.00,,---,0.00,0.00,VWS V14.01,2013-02-23 04:36:00,
2013-02-22 23:38:00,32.0,28.0,30.29,SE,132,0.0,0.0,85,0.00,,---,0.00,0.00,VWS V14.01,2013-02-23 04:38:00,
2013-02-22 23:41:00,32.0,27.7,30.29,SE,132,0.0,0.0,84,0.00,,---,0.00,0.00,VWS V14.01,2013-02-23 04:41:00,
2013-02-22 23:43:00,32.0,28.0,30.29,SE,132,0.0,0.0,85,0.00,,---,0.00,0.00,VWS V14.01,2013-02-23 04:43:00,
2013-02-22 23:46:00,32.0,28.0,30.29,SE,132,0.0,0.0,85,0.00,,---,0.00,0.00,VWS V14.01,2013-02-23 04:46:00,
2013-02-22 23:47:00,32.0,28.0,30.29,SE,132,0.0,0.0,85,0.00,,---,0.00,0.00,VWS V14.01,2013-02-23 04:47:00,
2013-02-22 23:48:00,32.0,28.0,30.29,SE,132,0.0,0.0,85,0.00,,---,0.00,0.00,VWS V14.01,2013-02-23 04:48:00,
2013-02-22 23:51:00,32.0,27.7,30.29,SE,132,0.0,0.0,84,0.00,,---,0.00,0.00,VWS V14.01,2013-02-23 04:51:00,
2013-02-22 23:52:00,32.0,28.0,30.29,SE,132,0.0,0.0,85,0.00,,---,0.00,0.00,VWS V14.01,2013-02-23 04:52:00,
2013-02-22 23:53:00,32.0,28.0,30.29,SE,132,0.0,0.0,85,0.00,,---,0.00,0.00,VWS V14.01,2013-02-23 04:53:00,
2013-02-22 23:56:00,32.0,27.7,30.29,SE,132,0.0,0.0,84,0.00,,---,0.00,0.00,VWS V14.01,2013-02-23 04:56:00,
2013-02-22 23:57:00,32.0,27.7,30.29,SE,132,0.0,0.0,84,0.00,,---,0.00,0.00,VWS V14.01,2013-02-23 04:57:00,
2013-02-22 23:58:00,32.0,27.7,30.29,SE,132,0.0,0.0,84,0.00,,---,0.00,0.00,VWS V14.01,2013-02-23 04:58:00,